Time,TemperatureF,DewpointF,PressureIn,WindDirection,WindDirectionDegrees,WindSpeedMPH,WindSpeedGustMPH,Humidity,HourlyPrecipIn,Conditions,Clouds,dailyrainin,SoftwareType,DateUTC
2013-01-19 00:00:00,36.5,29.3,30.09,SSW,203,5.0,15.0,75,0.00,,,0.00,VWS V14.01,2013-01-19 06:00:00,
2013-01-19 00:02:00,36.5,29.3,30.09,South,182,10.0,16.0,75,0.00,,CLR,0.00,VWS V14.01,2013-01-19 06:02:00,
2013-01-19 00:03:00,36.5,29.3,30.09,South,186,10.0,16.0,75,0.00,,CLR,0.00,VWS V14.01,2013-01-19 06:03:00,
2013-01-19 00:04:00,36.5,29.3,30.09,SSW,198,5.0,16.0,75,0.00,,CLR,0.00,VWS V14.01,2013-01-19 06:04:00,
2013-01-19 00:08:00,36.5,29.3,30.09,SW,224,7.0,16.0,75,0.00,,CLR,0.00,VWS V14.01,2013-01-19 06:08:00,
2013-01-19 00:09:00,36.5,29.3,30.09,SSW,196,6.0,16.0,75,0.00,,CLR,0.00,VWS V14.01,2013-01-19 06:09:00,
2013-01-19 00:13:00,36.5,29.3,30.09,SSW,202,13.0,16.0,75,0.00,,CLR,0.00,VWS V14.01,2013-01-19 06:13:00,
2013-01-19 00:14:00,36.5,29.3,30.09,SSW,195,5.0,17.0,75,0.00,,CLR,0.00,VWS V14.01,2013-01-19 06:14:00,
2013-01-19 00:18:00,36.7,29.5,30.09,South,181,7.0,17.0,75,0.00,,CLR,0.00,VWS V14.01,2013-01-19 06:18:00,
2013-01-19 00:19:00,36.7,29.2,30.09,South,169,5.0,17.0,74,0.00,,CLR,0.00,VWS V14.01,2013-01-19 06:19:00,
2013-01-19 00:23:00,36.7,29.2,30.09,SW,219,7.0,17.0,74,0.00,,CLR,0.00,VWS V14.01,2013-01-19 06:23:00,
2013-01-19 00:24:00,36.7,29.2,30.09,SSW,211,10.0,17.0,74,0.00,,CLR,0.00,VWS V14.01,2013-01-19 06:24:00,
2013-01-19 00:28:00,36.8,29.3,30.09,South,190,5.0,17.0,74,0.00,,CLR,0.00,VWS V14.01,2013-01-19 06:28:00,
2013-01-19 00:29:00,36.8,29.3,30.08,SSW,206,4.0,17.0,74,0.00,,CLR,0.00,VWS V14.01,2013-01-19 06:29:00,
2013-01-19 00:30:00,36.8,29.3,30.08,SSW,209,6.0,17.0,74,0.00,,,0.00,VWS V14.01,2013-01-19 06:30:00,
2013-01-19 00:33:00,36.8,29.3,30.08,SSW,212,2.0,16.0,74,0.00,,CLR,0.00,VWS V14.01,2013-01-19 06:33:00,
2013-01-19 00:34:00,36.8,29.3,30.08,SSW,203,4.0,16.0,74,0.00,,CLR,0.00,VWS V14.01,2013-01-19 06:34:00,
2013-01-19 00:35:00,36.8,29.3,30.08,SW,216,11.0,16.0,74,0.00,,CLR,0.00,VWS V14.01,2013-01-19 06:35:00,
2013-01-19 00:39:00,36.9,29.1,30.08,SSW,200,4.0,16.0,73,0.00,,CLR,0.00,VWS V14.01,2013-01-19 06:39:00,
2013-01-19 00:40:00,36.9,29.1,30.08,SSW,198,13.0,16.0,73,0.00,,CLR,0.00,VWS V14.01,2013-01-19 06:40:00,
2013-01-19 00:44:00,36.9,29.1,30.09,SW,232,4.0,19.0,73,0.00,,CLR,0.00,VWS V14.01,2013-01-19 06:44:00,
2013-01-19 00:45:00,36.9,29.1,30.09,SSW,209,8.0,19.0,73,0.00,,CLR,0.00,VWS V14.01,2013-01-19 06:45:00,
2013-01-19 00:49:00,36.9,29.1,30.09,South,182,7.0,19.0,73,0.00,,CLR,0.00,VWS V14.01,2013-01-19 06:49:00,
2013-01-19 00:50:00,36.9,29.1,30.09,South,191,3.0,19.0,73,0.00,,CLR,0.00,VWS V14.01,2013-01-19 06:50:00,
2013-01-19 00:54:00,36.8,29.0,30.09,South,180,5.0,19.0,73,0.00,,CLR,0.00,VWS V14.01,2013-01-19 06:54:00,
2013-01-19 00:55:00,36.8,29.0,30.09,South,191,5.0,19.0,73,0.00,,CLR,0.00,VWS V14.01,2013-01-19 06:55:00,
2013-01-19 00:59:00,36.8,29.0,30.08,SSW,198,5.0,19.0,73,0.00,,CLR,0.00,VWS V14.01,2013-01-19 06:59:00,
2013-01-19 01:00:00,36.8,29.0,30.08,SSW,207,7.0,10.0,73,0.00,,CLR,0.00,VWS V14.01,2013-01-19 07:00:00,
2013-01-19 01:04:00,36.7,28.9,30.08,SSW,192,5.0,14.0,73,0.00,,CLR,0.00,VWS V14.01,2013-01-19 07:04:00,
2013-01-19 01:05:00,36.7,28.9,30.08,South,188,5.0,14.0,73,0.00,,CLR,0.00,VWS V14.01,2013-01-19 07:05:00,
2013-01-19 01:09:00,36.7,29.2,30.08,SSW,206,4.0,14.0,74,0.00,,CLR,0.00,VWS V14.01,2013-01-19 07:09:00,
2013-01-19 01:10:00,36.7,29.2,30.08,SSW,192,4.0,14.0,74,0.00,,CLR,0.00,VWS V14.01,2013-01-19 07:10:00,
2013-01-19 01:14:00,36.5,29.0,30.08,SSW,199,12.0,14.0,74,0.00,,CLR,0.00,VWS V14.01,2013-01-19 07:14:00,
2013-01-19 01:15:00,36.5,29.0,30.08,SW,221,7.0,14.0,74,0.00,,CLR,0.00,VWS V14.01,2013-01-19 07:15:00,
2013-01-19 01:19:00,36.7,29.2,30.08,SSW,211,5.0,18.0,74,0.00,,CLR,0.00,VWS V14.01,2013-01-19 07:19:00,
2013-01-19 01:20:00,36.7,29.2,30.08,SSW,211,6.0,18.0,74,0.00,,CLR,0.00,VWS V14.01,2013-01-19 07:20:00,
2013-01-19 01:24:00,36.7,29.2,30.08,South,188,5.0,18.0,74,0.00,,CLR,0.00,VWS V14.01,2013-01-19 07:24:00,
2013-01-19 01:25:00,36.7,29.2,30.08,South,189,6.0,18.0,74,0.00,,CLR,0.00,VWS V14.01,2013-01-19 07:25:00,
2013-01-19 01:29:00,36.7,28.9,30.08,SSW,213,8.0,18.0,73,0.00,,CLR,0.00,VWS V14.01,2013-01-19 07:29:00,
2013-01-19 01:30:00,36.8,29.0,30.08,SSW,207,10.0,11.0,73,0.00,,CLR,0.00,VWS V14.01,2013-01-19 07:30:00,
2013-01-19 01:34:00,36.8,29.0,30.08,SSW,199,11.0,13.0,73,0.00,,CLR,0.00,VWS V14.01,2013-01-19 07:34:00,
2013-01-19 01:35:00,36.8,29.0,30.08,South,182,4.0,13.0,73,0.00,,CLR,0.00,VWS V14.01,2013-01-19 07:35:00,
2013-01-19 01:39:00,36.9,29.1,30.08,SW,215,9.0,13.0,73,0.00,,CLR,0.00,VWS V14.01,2013-01-19 07:39:00,
2013-01-19 01:40:00,36.9,29.1,30.08,SW,223,9.0,17.0,73,0.00,,CLR,0.00,VWS V14.01,2013-01-19 07:40:00,
2013-01-19 01:44:00,37.1,29.3,30.08,SSW,194,5.0,17.0,73,0.00,,CLR,0.00,VWS V14.01,2013-01-19 07:44:00,
2013-01-19 01:45:00,37.1,29.3,30.08,SSW,201,3.0,17.0,73,0.00,,CLR,0.00,VWS V14.01,2013-01-19 07:45:00,
2013-01-19 01:46:00,37.1,29.3,30.08,SW,223,7.0,17.0,73,0.00,,CLR,0.00,VWS V14.01,2013-01-19 07:46:00,
2013-01-19 01:50:00,36.9,29.1,30.08,South,182,5.0,17.0,73,0.00,,CLR,0.00,VWS V14.01,2013-01-19 07:50:00,
2013-01-19 01:51:00,37.1,29.3,30.08,SW,217,7.0,17.0,73,0.00,,CLR,0.00,VWS V14.01,2013-01-19 07:51:00,
2013-01-19 01:55:00,37.1,28.9,30.08,SSW,199,5.0,17.0,72,0.00,,CLR,0.00,VWS V14.01,2013-01-19 07:55:00,
2013-01-19 01:57:00,37.1,28.9,30.08,SSW,194,6.0,17.0,72,0.00,,CLR,0.00,VWS V14.01,2013-01-19 07:57:00,
2013-01-19 02:00:00,37.1,28.9,30.08,SSW,206,6.0,9.0,72,0.00,,CLR,0.00,VWS V14.01,2013-01-19 08:00:00,
2013-01-19 02:01:00,37.2,29.0,30.08,South,175,16.0,18.0,72,0.00,,CLR,0.00,VWS V14.01,2013-01-19 08:01:00,
2013-01-19 02:02:00,37.2,29.0,30.08,SSE,147,7.0,18.0,72,0.00,,CLR,0.00,VWS V14.01,2013-01-19 08:02:00,
2013-01-19 02:05:00,37.2,29.0,30.08,SW,219,6.0,18.0,72,0.00,,CLR,0.00,VWS V14.01,2013-01-19 08:05:00,
2013-01-19 02:06:00,37.4,29.2,30.08,SSW,213,9.0,18.0,72,0.00,,CLR,0.00,VWS V14.01,2013-01-19 08:06:00,
2013-01-19 02:07:00,37.4,29.2,30.08,SSW,194,1.0,18.0,72,0.00,,CLR,0.00,VWS V14.01,2013-01-19 08:07:00,
2013-01-19 02:10:00,37.2,29.0,30.08,South,179,11.0,18.0,72,0.00,,CLR,0.00,VWS V14.01,2013-01-19 08:10:00,
2013-01-19 02:11:00,37.2,29.0,30.08,South,185,4.0,18.0,72,0.00,,CLR,0.00,VWS V14.01,2013-01-19 08:11:00,
2013-01-19 02:12:00,37.2,29.0,30.08,SSW,205,13.0,18.0,72,0.00,,CLR,0.00,VWS V14.01,2013-01-19 08:12:00,
2013-01-19 02:15:00,37.2,29.0,30.08,South,179,9.0,18.0,72,0.00,,CLR,0.00,VWS V14.01,2013-01-19 08:15:00,
2013-01-19 02:16:00,37.2,29.0,30.08,SW,231,4.0,18.0,72,0.00,,CLR,0.00,VWS V14.01,2013-01-19 08:16:00,
2013-01-19 02:17:00,37.2,29.0,30.08,South,184,3.0,18.0,72,0.00,,CLR,0.00,VWS V14.01,2013-01-19 08:17:00,
2013-01-19 02:20:00,37.1,28.9,30.08,SW,218,6.0,18.0,72,0.00,,CLR,0.00,VWS V14.01,2013-01-19 08:20:00,
2013-01-19 02:21:00,37.2,29.0,30.08,SSW,204,5.0,18.0,72,0.00,,CLR,0.00,VWS V14.01,2013-01-19 08:21:00,
2013-01-19 02:22:00,37.2,29.0,30.08,SSW,209,7.0,18.0,72,0.00,,CLR,0.00,VWS V14.01,2013-01-19 08:22:00,
2013-01-19 02:25:00,37.2,29.0,30.08,SSW,198,8.0,18.0,72,0.00,,CLR,0.00,VWS V14.01,2013-01-19 08:25:00,
2013-01-19 02:26:00,37.2,29.0,30.08,South,186,5.0,18.0,72,0.00,,CLR,0.00,VWS V14.01,2013-01-19 08:26:00,
2013-01-19 02:27:00,37.2,28.7,30.08,SSW,212,5.0,18.0,71,0.00,,CLR,0.00,VWS V14.01,2013-01-19 08:27:00,
2013-01-19 02:30:00,37.2,29.0,30.08,South,180,6.0,13.0,72,0.00,,CLR,0.00,VWS V14.01,2013-01-19 08:30:00,
2013-01-19 02:32:00,37.2,28.7,30.08,South,184,6.0,13.0,71,0.00,,CLR,0.00,VWS V14.01,2013-01-19 08:32:00,
2013-01-19 02:35:00,37.4,28.9,30.08,South,191,7.0,14.0,71,0.00,,CLR,0.00,VWS V14.01,2013-01-19 08:35:00,
2013-01-19 02:37:00,37.4,28.9,30.08,SW,219,9.0,14.0,71,0.00,,CLR,0.00,VWS V14.01,2013-01-19 08:37:00,
2013-01-19 02:40:00,37.4,28.9,30.08,SSW,207,13.0,14.0,71,0.00,,CLR,0.00,VWS V14.01,2013-01-19 08:40:00,
2013-01-19 02:42:00,37.4,28.9,30.08,SSW,207,9.0,14.0,71,0.00,,CLR,0.00,VWS V14.01,2013-01-19 08:42:00,
2013-01-19 02:43:00,37.5,29.0,30.08,South,189,9.0,14.0,71,0.00,,CLR,0.00,VWS V14.01,2013-01-19 08:43:00,
2013-01-19 02:46:00,37.5,29.0,30.08,SSW,194,6.0,17.0,71,0.00,,CLR,0.00,VWS V14.01,2013-01-19 08:46:00,
2013-01-19 02:47:00,37.7,28.8,30.08,South,188,4.0,17.0,70,0.00,,CLR,0.00,VWS V14.01,2013-01-19 08:47:00,
2013-01-19 02:48:00,37.5,28.6,30.08,SSE,158,7.0,17.0,70,0.00,,CLR,0.00,VWS V14.01,2013-01-19 08:48:00,
2013-01-19 02:51:00,37.5,28.6,30.08,SW,231,7.0,17.0,70,0.00,,CLR,0.00,VWS V14.01,2013-01-19 08:51:00,
2013-01-19 02:52:00,37.5,28.6,30.08,SSW,194,5.0,17.0,70,0.00,,CLR,0.00,VWS V14.01,2013-01-19 08:52:00,
2013-01-19 02:53:00,37.5,28.6,30.08,SW,221,4.0,17.0,70,0.00,,CLR,0.00,VWS V14.01,2013-01-19 08:53:00,
2013-01-19 02:56:00,37.5,28.6,30.08,South,182,9.0,17.0,70,0.00,,CLR,0.00,VWS V14.01,2013-01-19 08:56:00,
2013-01-19 02:57:00,37.5,28.6,30.08,SW,226,8.0,17.0,70,0.00,,CLR,0.00,VWS V14.01,2013-01-19 08:57:00,
2013-01-19 02:58:00,37.7,28.8,30.08,SSW,192,19.0,19.0,70,0.00,,CLR,0.00,VWS V14.01,2013-01-19 08:58:00,
2013-01-19 03:00:00,37.7,28.8,30.07,SW,223,5.0,20.0,70,0.00,,,0.00,VWS V14.01,2013-01-19 09:00:00,
2013-01-19 03:01:00,37.8,28.9,30.07,SW,217,6.0,13.0,70,0.00,,CLR,0.00,VWS V14.01,2013-01-19 09:01:00,
2013-01-19 03:02:00,37.8,28.9,30.07,SSW,194,6.0,13.0,70,0.00,,CLR,0.00,VWS V14.01,2013-01-19 09:02:00,
2013-01-19 03:03:00,37.8,28.6,30.07,SSW,199,3.0,13.0,69,0.00,,CLR,0.00,VWS V14.01,2013-01-19 09:03:00,
2013-01-19 03:06:00,37.7,28.8,30.07,SSW,212,3.0,13.0,70,0.00,,CLR,0.00,VWS V14.01,2013-01-19 09:06:00,
2013-01-19 03:07:00,37.7,28.8,30.07,SW,223,9.0,13.0,70,0.00,,CLR,0.00,VWS V14.01,2013-01-19 09:07:00,
2013-01-19 03:08:00,37.7,28.8,30.07,SSW,207,6.0,13.0,70,0.00,,CLR,0.00,VWS V14.01,2013-01-19 09:08:00,
2013-01-19 03:11:00,37.7,28.8,30.07,SSW,197,6.0,14.0,70,0.00,,CLR,0.00,VWS V14.01,2013-01-19 09:11:00,
2013-01-19 03:12:00,37.7,28.8,30.07,SSW,194,11.0,14.0,70,0.00,,CLR,0.00,VWS V14.01,2013-01-19 09:12:00,
2013-01-19 03:13:00,37.7,28.8,30.07,South,185,5.0,16.0,70,0.00,,CLR,0.00,VWS V14.01,2013-01-19 09:13:00,
2013-01-19 03:16:00,37.7,28.8,30.07,South,185,4.0,16.0,70,0.00,,CLR,0.00,VWS V14.01,2013-01-19 09:16:00,
2013-01-19 03:17:00,37.7,28.5,30.07,SSW,206,6.0,16.0,69,0.00,,CLR,0.00,VWS V14.01,2013-01-19 09:17:00,
2013-01-19 03:18:00,37.7,28.8,30.07,SW,222,6.0,16.0,70,0.00,,CLR,0.00,VWS V14.01,2013-01-19 09:18:00,
2013-01-19 03:22:00,37.5,28.6,30.07,South,180,6.0,16.0,70,0.00,,CLR,0.00,VWS V14.01,2013-01-19 09:22:00,
2013-01-19 03:23:00,37.5,28.3,30.07,SSW,200,7.0,19.0,69,0.00,,CLR,0.00,VWS V14.01,2013-01-19 09:23:00,
2013-01-19 03:27:00,37.5,28.3,30.07,South,178,7.0,19.0,69,0.00,,CLR,0.00,VWS V14.01,2013-01-19 09:27:00,
2013-01-19 03:28:00,37.5,28.6,30.07,SSW,195,6.0,19.0,70,0.00,,CLR,0.00,VWS V14.01,2013-01-19 09:28:00,
2013-01-19 03:30:00,37.5,28.6,30.06,South,182,6.0,19.0,70,0.00,,,0.00,VWS V14.01,2013-01-19 09:30:00,
2013-01-19 03:33:00,37.4,28.5,30.06,SSW,192,12.0,13.0,70,0.00,,CLR,0.00,VWS V14.01,2013-01-19 09:33:00,
2013-01-19 03:38:00,37.5,28.6,30.06,SSW,207,12.0,17.0,70,0.00,,CLR,0.00,VWS V14.01,2013-01-19 09:38:00,
2013-01-19 03:43:00,37.4,28.5,30.06,South,190,10.0,17.0,70,0.00,,CLR,0.00,VWS V14.01,2013-01-19 09:43:00,
2013-01-19 03:44:00,37.4,28.5,30.06,South,173,8.0,17.0,70,0.00,,CLR,0.00,VWS V14.01,2013-01-19 09:44:00,
2013-01-19 03:48:00,37.5,28.6,30.06,SSW,194,5.0,19.0,70,0.00,,CLR,0.00,VWS V14.01,2013-01-19 09:48:00,
2013-01-19 03:49:00,37.5,28.3,30.06,SSW,198,4.0,19.0,69,0.00,,CLR,0.00,VWS V14.01,2013-01-19 09:49:00,
2013-01-19 03:53:00,37.5,28.3,30.06,SSW,211,5.0,19.0,69,0.00,,CLR,0.00,VWS V14.01,2013-01-19 09:53:00,
2013-01-19 03:54:00,37.5,28.3,30.06,SSW,204,5.0,19.0,69,0.00,,CLR,0.00,VWS V14.01,2013-01-19 09:54:00,
2013-01-19 03:58:00,37.4,28.2,30.06,SSW,194,9.0,19.0,69,0.00,,CLR,0.00,VWS V14.01,2013-01-19 09:58:00,
2013-01-19 03:59:00,37.4,28.2,30.05,SSE,150,10.0,19.0,69,0.00,,CLR,0.00,VWS V14.01,2013-01-19 09:59:00,
2013-01-19 04:00:00,37.5,28.3,30.05,South,191,10.0,15.0,69,0.00,,CLR,0.00,VWS V14.01,2013-01-19 10:00:00,
2013-01-19 04:03:00,37.5,28.3,30.05,South,191,5.0,16.0,69,0.00,,CLR,0.00,VWS V14.01,2013-01-19 10:03:00,
2013-01-19 04:04:00,37.5,28.3,30.05,SSW,192,5.0,16.0,69,0.00,,CLR,0.00,VWS V14.01,2013-01-19 10:04:00,
2013-01-19 04:05:00,37.5,28.3,30.05,SSW,194,21.0,21.0,69,0.00,,CLR,0.00,VWS V14.01,2013-01-19 10:05:00,
2013-01-19 04:08:00,37.7,28.5,30.05,South,185,5.0,21.0,69,0.00,,CLR,0.00,VWS V14.01,2013-01-19 10:08:00,
2013-01-19 04:09:00,37.7,28.5,30.05,SSW,197,11.0,21.0,69,0.00,,CLR,0.00,VWS V14.01,2013-01-19 10:09:00,
2013-01-19 04:10:00,37.7,28.5,30.05,SW,215,12.0,21.0,69,0.00,,CLR,0.00,VWS V14.01,2013-01-19 10:10:00,
2013-01-19 04:14:00,37.7,28.5,30.05,SW,228,7.0,21.0,69,0.00,,CLR,0.00,VWS V14.01,2013-01-19 10:14:00,
2013-01-19 04:15:00,37.7,28.5,30.05,SSW,207,5.0,21.0,69,0.00,,CLR,0.00,VWS V14.01,2013-01-19 10:15:00,
2013-01-19 04:19:00,37.5,28.3,30.05,SW,215,12.0,21.0,69,0.00,,CLR,0.00,VWS V14.01,2013-01-19 10:19:00,
2013-01-19 04:20:00,37.5,28.3,30.05,SSW,199,4.0,21.0,69,0.00,,CLR,0.00,VWS V14.01,2013-01-19 10:20:00,
2013-01-19 04:24:00,37.5,28.3,30.05,SW,215,12.0,21.0,69,0.00,,CLR,0.00,VWS V14.01,2013-01-19 10:24:00,
2013-01-19 04:25:00,37.5,28.3,30.05,South,171,2.0,21.0,69,0.00,,CLR,0.00,VWS V14.01,2013-01-19 10:25:00,
2013-01-19 04:29:00,37.5,28.3,30.05,SSW,209,5.0,21.0,69,0.00,,CLR,0.00,VWS V14.01,2013-01-19 10:29:00,
2013-01-19 04:30:00,37.5,28.3,30.05,South,182,4.0,7.0,69,0.00,,CLR,0.00,VWS V14.01,2013-01-19 10:30:00,
2013-01-19 04:34:00,37.5,28.3,30.05,SW,215,7.0,15.0,69,0.00,,CLR,0.00,VWS V14.01,2013-01-19 10:34:00,
2013-01-19 04:35:00,37.5,28.3,30.05,SW,229,12.0,15.0,69,0.00,,CLR,0.00,VWS V14.01,2013-01-19 10:35:00,
2013-01-19 04:39:00,37.5,27.9,30.05,SSW,197,6.0,15.0,68,0.00,,CLR,0.00,VWS V14.01,2013-01-19 10:39:00,
2013-01-19 04:41:00,37.4,28.2,30.05,SSW,198,4.0,15.0,69,0.00,,CLR,0.00,VWS V14.01,2013-01-19 10:41:00,
2013-01-19 04:44:00,37.5,27.9,30.05,SSW,199,7.0,16.0,68,0.00,,CLR,0.00,VWS V14.01,2013-01-19 10:44:00,
2013-01-19 04:45:00,37.5,27.9,30.05,SSW,200,6.0,16.0,68,0.00,,CLR,0.00,VWS V14.01,2013-01-19 10:45:00,
2013-01-19 04:47:00,37.5,27.9,30.05,SW,214,6.0,16.0,68,0.00,,CLR,0.00,VWS V14.01,2013-01-19 10:47:00,
2013-01-19 04:49:00,37.4,27.8,30.05,SW,215,7.0,16.0,68,0.00,,CLR,0.00,VWS V14.01,2013-01-19 10:49:00,
2013-01-19 04:50:00,37.4,27.8,30.05,SW,221,11.0,16.0,68,0.00,,CLR,0.00,VWS V14.01,2013-01-19 10:50:00,
2013-01-19 04:52:00,37.4,27.8,30.05,South,190,3.0,16.0,68,0.00,,CLR,0.00,VWS V14.01,2013-01-19 10:52:00,
2013-01-19 04:55:00,37.4,28.2,30.05,SSW,192,5.0,16.0,69,0.00,,CLR,0.00,VWS V14.01,2013-01-19 10:55:00,
2013-01-19 04:57:00,37.4,28.2,30.05,SSW,200,4.0,16.0,69,0.00,,CLR,0.00,VWS V14.01,2013-01-19 10:57:00,
2013-01-19 05:00:00,37.4,28.2,30.04,South,188,5.0,9.0,69,0.00,,CLR,0.00,VWS V14.01,2013-01-19 11:00:00,
2013-01-19 05:02:00,37.4,28.2,30.04,SW,215,6.0,15.0,69,0.00,,CLR,0.00,VWS V14.01,2013-01-19 11:02:00,
2013-01-19 05:05:00,37.2,28.0,30.04,SSW,196,7.0,15.0,69,0.00,,CLR,0.00,VWS V14.01,2013-01-19 11:05:00,
2013-01-19 05:07:00,37.2,28.0,30.04,SW,217,8.0,16.0,69,0.00,,CLR,0.00,VWS V14.01,2013-01-19 11:07:00,
2013-01-19 05:10:00,37.2,28.0,30.04,SSW,196,4.0,16.0,69,0.00,,CLR,0.00,VWS V14.01,2013-01-19 11:10:00,
2013-01-19 05:11:00,37.2,28.0,30.04,South,179,7.0,17.0,69,0.00,,CLR,0.00,VWS V14.01,2013-01-19 11:11:00,
2013-01-19 05:12:00,37.2,28.0,30.04,SSW,205,5.0,17.0,69,0.00,,CLR,0.00,VWS V14.01,2013-01-19 11:12:00,
2013-01-19 05:30:00,37.1,27.9,30.03,South,177,10.0,18.0,69,0.00,,,0.00,VWS V14.01,2013-01-19 11:30:00,
2013-01-19 06:00:00,37.5,27.9,30.02,South,184,5.0,18.0,68,0.00,,,0.00,VWS V14.01,2013-01-19 12:00:00,
2013-01-19 06:30:00,37.9,27.6,30.02,SSW,195,6.0,20.0,66,0.00,,,0.00,VWS V14.01,2013-01-19 12:30:00,
2013-01-19 06:47:00,37.8,27.5,30.02,SW,224,10.0,19.0,66,0.00,,CLR,0.00,VWS V14.01,2013-01-19 12:47:00,
2013-01-19 06:48:00,37.8,27.5,30.02,SSW,209,11.0,19.0,66,0.00,,CLR,0.00,VWS V14.01,2013-01-19 12:48:00,
2013-01-19 06:53:00,37.8,27.5,30.02,SW,223,5.0,19.0,66,0.00,,CLR,0.00,VWS V14.01,2013-01-19 12:53:00,
2013-01-19 06:54:00,37.8,27.5,30.02,SSW,205,8.0,19.0,66,0.00,,CLR,0.00,VWS V14.01,2013-01-19 12:54:00,
2013-01-19 06:58:00,37.8,27.5,30.02,South,182,3.0,19.0,66,0.00,,CLR,0.00,VWS V14.01,2013-01-19 12:58:00,
2013-01-19 06:59:00,37.8,27.5,30.02,SSW,192,9.0,19.0,66,0.00,,CLR,0.00,VWS V14.01,2013-01-19 12:59:00,
2013-01-19 07:00:00,37.8,27.5,30.02,South,180,5.0,19.0,66,0.00,,,0.00,VWS V14.01,2013-01-19 13:00:00,
2013-01-19 07:03:00,37.8,27.5,30.02,SSW,203,9.0,16.0,66,0.00,,CLR,0.00,VWS V14.01,2013-01-19 13:03:00,
2013-01-19 07:04:00,37.8,27.5,30.02,South,182,10.0,16.0,66,0.00,,CLR,0.00,VWS V14.01,2013-01-19 13:04:00,
2013-01-19 07:08:00,37.9,27.6,30.02,South,188,8.0,19.0,66,0.00,,CLR,0.00,VWS V14.01,2013-01-19 13:08:00,
2013-01-19 07:09:00,37.9,27.6,30.02,SW,229,9.0,19.0,66,0.00,,CLR,0.00,VWS V14.01,2013-01-19 13:09:00,
2013-01-19 07:13:00,37.9,27.6,30.02,SW,232,4.0,19.0,66,0.00,,CLR,0.00,VWS V14.01,2013-01-19 13:13:00,
2013-01-19 07:14:00,37.9,27.6,30.02,SSW,208,6.0,19.0,66,0.00,,CLR,0.00,VWS V14.01,2013-01-19 13:14:00,
2013-01-19 07:18:00,37.9,27.6,30.02,SW,219,12.0,19.0,66,0.00,,CLR,0.00,VWS V14.01,2013-01-19 13:18:00,
2013-01-19 07:19:00,37.9,27.6,30.02,South,191,10.0,19.0,66,0.00,,CLR,0.00,VWS V14.01,2013-01-19 13:19:00,
2013-01-19 07:23:00,37.8,27.5,30.02,SSW,196,17.0,19.0,66,0.00,,CLR,0.00,VWS V14.01,2013-01-19 13:23:00,
2013-01-19 07:24:00,37.8,27.5,30.02,SSW,197,11.0,19.0,66,0.00,,CLR,0.00,VWS V14.01,2013-01-19 13:24:00,
2013-01-19 07:25:00,37.8,27.5,30.02,SW,217,4.0,19.0,66,0.00,,CLR,0.00,VWS V14.01,2013-01-19 13:25:00,
2013-01-19 07:28:00,37.8,27.5,30.02,SW,230,6.0,19.0,66,0.00,,CLR,0.00,VWS V14.01,2013-01-19 13:28:00,
2013-01-19 07:29:00,37.8,27.5,30.02,South,179,9.0,19.0,66,0.00,,CLR,0.00,VWS V14.01,2013-01-19 13:29:00,
2013-01-19 07:30:00,37.8,27.5,30.02,SSW,203,4.0,5.0,66,0.00,,CLR,0.00,VWS V14.01,2013-01-19 13:30:00,
2013-01-19 07:34:00,37.8,27.5,30.02,South,189,10.0,17.0,66,0.00,,CLR,0.00,VWS V14.01,2013-01-19 13:34:00,
2013-01-19 07:35:00,37.8,27.5,30.02,South,186,6.0,17.0,66,0.00,,CLR,0.00,VWS V14.01,2013-01-19 13:35:00,
2013-01-19 07:39:00,37.8,27.5,30.02,South,171,7.0,17.0,66,0.00,,CLR,0.00,VWS V14.01,2013-01-19 13:39:00,
2013-01-19 07:40:00,37.8,27.5,30.02,South,188,4.0,17.0,66,0.00,,CLR,0.00,VWS V14.01,2013-01-19 13:40:00,
2013-01-19 07:44:00,37.8,27.5,30.01,SSW,211,7.0,20.0,66,0.00,,CLR,0.00,VWS V14.01,2013-01-19 13:44:00,
2013-01-19 07:45:00,37.9,27.6,30.01,SSE,164,4.0,20.0,66,0.00,,CLR,0.00,VWS V14.01,2013-01-19 13:45:00,
2013-01-19 07:49:00,37.9,27.6,30.01,SSW,198,10.0,20.0,66,0.00,,CLR,0.00,VWS V14.01,2013-01-19 13:49:00,
2013-01-19 07:50:00,37.9,27.6,30.01,SSW,201,5.0,20.0,66,0.00,,CLR,0.00,VWS V14.01,2013-01-19 13:50:00,
2013-01-19 07:54:00,37.9,27.6,30.01,South,186,3.0,20.0,66,0.00,,CLR,0.00,VWS V14.01,2013-01-19 13:54:00,
2013-01-19 07:55:00,37.9,27.6,30.01,SSW,202,8.0,20.0,66,0.00,,CLR,0.00,VWS V14.01,2013-01-19 13:55:00,
2013-01-19 07:59:00,38.1,27.8,30.01,South,188,12.0,20.0,66,0.00,,CLR,0.00,VWS V14.01,2013-01-19 13:59:00,
2013-01-19 08:00:00,38.1,27.8,30.01,SW,225,5.0,7.0,66,0.00,,CLR,0.00,VWS V14.01,2013-01-19 14:00:00,
2013-01-19 08:04:00,38.2,27.9,30.01,South,188,6.0,19.0,66,0.00,,CLR,0.00,VWS V14.01,2013-01-19 14:04:00,
2013-01-19 08:05:00,38.2,27.9,30.01,SSW,209,10.0,19.0,66,0.00,,CLR,0.00,VWS V14.01,2013-01-19 14:05:00,
2013-01-19 08:09:00,38.4,28.0,30.01,SSW,201,12.0,19.0,66,0.00,,CLR,0.00,VWS V14.01,2013-01-19 14:09:00,
2013-01-19 08:10:00,38.4,28.0,30.01,SSW,194,14.0,19.0,66,0.00,,CLR,0.00,VWS V14.01,2013-01-19 14:10:00,
2013-01-19 08:11:00,38.4,28.0,30.01,South,184,12.0,19.0,66,0.00,,CLR,0.00,VWS V14.01,2013-01-19 14:11:00,
2013-01-19 08:14:00,38.5,27.8,30.01,SSW,199,11.0,19.0,65,0.00,,CLR,0.00,VWS V14.01,2013-01-19 14:14:00,
2013-01-19 08:15:00,38.5,27.8,30.01,SW,218,5.0,19.0,65,0.00,,CLR,0.00,VWS V14.01,2013-01-19 14:15:00,
2013-01-19 08:16:00,38.7,28.0,30.01,SSW,205,12.0,19.0,65,0.00,,CLR,0.00,VWS V14.01,2013-01-19 14:16:00,
2013-01-19 08:19:00,38.8,28.1,30.01,SSW,202,11.0,19.0,65,0.00,,CLR,0.00,VWS V14.01,2013-01-19 14:19:00,
2013-01-19 08:20:00,38.8,28.1,30.01,SW,220,6.0,19.0,65,0.00,,CLR,0.00,VWS V14.01,2013-01-19 14:20:00,
2013-01-19 08:21:00,38.8,28.1,30.01,SW,217,7.0,19.0,65,0.00,,CLR,0.00,VWS V14.01,2013-01-19 14:21:00,
2013-01-19 08:24:00,39.0,28.2,30.01,SSW,201,11.0,19.0,65,0.00,,CLR,0.00,VWS V14.01,2013-01-19 14:24:00,
2013-01-19 08:25:00,39.0,28.2,30.01,SSW,192,11.0,19.0,65,0.00,,CLR,0.00,VWS V14.01,2013-01-19 14:25:00,
2013-01-19 08:26:00,39.0,27.9,30.01,SSW,202,12.0,19.0,64,0.00,,CLR,0.00,VWS V14.01,2013-01-19 14:26:00,
2013-01-19 08:30:00,39.1,28.0,30.01,SW,222,11.0,17.0,64,0.00,,CLR,0.00,VWS V14.01,2013-01-19 14:30:00,
2013-01-19 08:31:00,39.2,28.1,30.01,SSW,203,6.0,17.0,64,0.00,,CLR,0.00,VWS V14.01,2013-01-19 14:31:00,
2013-01-19 08:35:00,39.4,28.2,30.01,SSW,196,12.0,17.0,64,0.00,,CLR,0.00,VWS V14.01,2013-01-19 14:35:00,
2013-01-19 08:36:00,39.4,28.2,30.01,SSW,200,6.0,17.0,64,0.00,,CLR,0.00,VWS V14.01,2013-01-19 14:36:00,
2013-01-19 08:40:00,39.5,28.4,30.01,SSW,211,6.0,19.0,64,0.00,,CLR,0.00,VWS V14.01,2013-01-19 14:40:00,
2013-01-19 08:41:00,39.5,28.4,30.01,SSW,198,9.0,19.0,64,0.00,,CLR,0.00,VWS V14.01,2013-01-19 14:41:00,
2013-01-19 08:42:00,39.5,28.4,30.01,SSW,207,10.0,19.0,64,0.00,,CLR,0.00,VWS V14.01,2013-01-19 14:42:00,
2013-01-19 08:45:00,39.7,28.5,30.00,South,184,3.0,19.0,64,0.00,,CLR,0.00,VWS V14.01,2013-01-19 14:45:00,
2013-01-19 08:47:00,39.8,28.2,30.00,South,182,6.0,19.0,63,0.00,,CLR,0.00,VWS V14.01,2013-01-19 14:47:00,
2013-01-19 08:50:00,40.0,28.4,30.00,South,185,10.0,19.0,63,0.00,,CLR,0.00,VWS V14.01,2013-01-19 14:50:00,
2013-01-19 08:52:00,40.1,28.5,30.00,South,191,7.0,19.0,63,0.00,,CLR,0.00,VWS V14.01,2013-01-19 14:52:00,
2013-01-19 08:55:00,40.2,28.2,30.00,SW,224,11.0,19.0,62,0.00,,CLR,0.00,VWS V14.01,2013-01-19 14:55:00,
2013-01-19 08:57:00,40.4,28.4,30.00,SW,226,7.0,19.0,62,0.00,,CLR,0.00,VWS V14.01,2013-01-19 14:57:00,
2013-01-19 08:58:00,40.4,28.4,30.00,WSW,249,8.0,19.0,62,0.00,,CLR,0.00,VWS V14.01,2013-01-19 14:58:00,
2013-01-19 09:00:00,40.5,28.5,30.01,SSW,192,11.0,11.0,62,0.00,,CLR,0.00,VWS V14.01,2013-01-19 15:00:00,
2013-01-19 09:02:00,40.8,28.8,30.01,SSW,203,4.0,14.0,62,0.00,,CLR,0.00,VWS V14.01,2013-01-19 15:02:00,
2013-01-19 09:03:00,40.8,28.4,30.01,SSW,202,3.0,14.0,61,0.00,,CLR,0.00,VWS V14.01,2013-01-19 15:03:00,
2013-01-19 09:05:00,41.0,28.6,30.01,SSW,200,10.0,14.0,61,0.00,,CLR,0.00,VWS V14.01,2013-01-19 15:05:00,
2013-01-19 09:07:00,41.1,28.7,30.01,SSW,212,2.0,16.0,61,0.00,,CLR,0.00,VWS V14.01,2013-01-19 15:07:00,
2013-01-19 09:08:00,41.1,28.7,30.01,SSW,208,2.0,16.0,61,0.00,,CLR,0.00,VWS V14.01,2013-01-19 15:08:00,
2013-01-19 09:10:00,41.2,28.8,30.01,SW,218,8.0,17.0,61,0.00,,CLR,0.00,VWS V14.01,2013-01-19 15:10:00,
2013-01-19 09:12:00,41.2,28.4,30.01,South,173,9.0,17.0,60,0.00,,CLR,0.00,VWS V14.01,2013-01-19 15:12:00,
2013-01-19 09:13:00,41.2,28.4,30.01,SSW,202,7.0,17.0,60,0.00,,CLR,0.00,VWS V14.01,2013-01-19 15:13:00,
2013-01-19 09:14:00,41.4,28.6,30.01,SW,234,10.0,17.0,60,0.00,,CLR,0.00,VWS V14.01,2013-01-19 15:14:00,
2013-01-19 09:15:00,41.4,28.6,30.01,SW,217,6.0,17.0,60,0.00,,CLR,0.00,VWS V14.01,2013-01-19 15:15:00,
2013-01-19 09:18:00,41.7,28.9,30.01,SW,225,5.0,17.0,60,0.00,,CLR,0.00,VWS V14.01,2013-01-19 15:18:00,
2013-01-19 09:19:00,41.8,29.0,30.01,South,191,9.0,17.0,60,0.00,,CLR,0.00,VWS V14.01,2013-01-19 15:19:00,
2013-01-19 09:20:00,41.8,29.0,30.01,SW,215,7.0,17.0,60,0.00,,CLR,0.00,VWS V14.01,2013-01-19 15:20:00,
2013-01-19 09:23:00,42.0,28.7,30.01,South,182,10.0,17.0,59,0.00,,CLR,0.00,VWS V14.01,2013-01-19 15:23:00,
2013-01-19 09:24:00,42.0,28.7,30.01,South,170,11.0,17.0,59,0.00,,CLR,0.00,VWS V14.01,2013-01-19 15:24:00,
2013-01-19 09:25:00,42.0,28.7,30.01,SSW,205,12.0,18.0,59,0.00,,CLR,0.00,VWS V14.01,2013-01-19 15:25:00,
2013-01-19 09:28:00,42.0,28.7,30.01,South,189,5.0,20.0,59,0.00,,CLR,0.00,VWS V14.01,2013-01-19 15:28:00,
2013-01-19 09:29:00,42.0,28.7,30.00,SW,217,9.0,20.0,59,0.00,,CLR,0.00,VWS V14.01,2013-01-19 15:29:00,
2013-01-19 09:30:00,42.0,28.7,30.00,SW,225,6.0,18.0,59,0.00,,CLR,0.00,VWS V14.01,2013-01-19 15:30:00,
2013-01-19 09:33:00,42.1,28.8,30.00,SSW,201,3.0,18.0,59,0.00,,CLR,0.00,VWS V14.01,2013-01-19 15:33:00,
2013-01-19 09:34:00,42.2,28.9,30.00,SSW,199,14.0,18.0,59,0.00,,CLR,0.00,VWS V14.01,2013-01-19 15:34:00,
2013-01-19 09:35:00,42.4,29.1,30.00,SSW,192,4.0,18.0,59,0.00,,CLR,0.00,VWS V14.01,2013-01-19 15:35:00,
2013-01-19 09:38:00,42.7,29.0,30.00,SSW,209,4.0,18.0,58,0.00,,CLR,0.00,VWS V14.01,2013-01-19 15:38:00,
2013-01-19 09:39:00,42.7,29.0,30.00,SW,216,10.0,18.0,58,0.00,,CLR,0.00,VWS V14.01,2013-01-19 15:39:00,
2013-01-19 09:40:00,42.8,29.1,30.00,SSW,200,14.0,18.0,58,0.00,,CLR,0.00,VWS V14.01,2013-01-19 15:40:00,
2013-01-19 09:43:00,42.8,29.1,30.00,SSW,197,10.0,18.0,58,0.00,,CLR,0.00,VWS V14.01,2013-01-19 15:43:00,
2013-01-19 09:44:00,43.0,29.2,30.00,South,187,4.0,18.0,58,0.00,,CLR,0.00,VWS V14.01,2013-01-19 15:44:00,
2013-01-19 09:46:00,43.0,29.2,30.00,SW,230,14.0,18.0,58,0.00,,CLR,0.00,VWS V14.01,2013-01-19 15:46:00,
2013-01-19 09:48:00,43.0,29.2,30.00,SSW,213,11.0,20.0,58,0.00,,CLR,0.00,VWS V14.01,2013-01-19 15:48:00,
2013-01-19 09:49:00,43.1,29.3,30.00,SSW,211,7.0,20.0,58,0.00,,CLR,0.00,VWS V14.01,2013-01-19 15:49:00,
2013-01-19 09:51:00,43.1,29.3,30.00,SSW,200,11.0,20.0,58,0.00,,CLR,0.00,VWS V14.01,2013-01-19 15:51:00,
2013-01-19 09:54:00,43.4,29.6,30.00,SW,217,12.0,20.0,58,0.00,,CLR,0.00,VWS V14.01,2013-01-19 15:54:00,
2013-01-19 09:55:00,43.4,29.2,30.00,SSE,163,6.0,20.0,57,0.00,,CLR,0.00,VWS V14.01,2013-01-19 15:55:00,
2013-01-19 09:56:00,43.5,29.3,30.00,South,186,4.0,20.0,57,0.00,,CLR,0.00,VWS V14.01,2013-01-19 15:56:00,
2013-01-19 09:59:00,43.8,29.6,30.00,WSW,243,7.0,20.0,57,0.00,,CLR,0.00,VWS V14.01,2013-01-19 15:59:00,
2013-01-19 10:00:00,44.0,29.8,30.00,SSW,208,9.0,10.0,57,0.00,,CLR,0.00,VWS V14.01,2013-01-19 16:00:00,
2013-01-19 10:02:00,44.1,29.4,30.00,SW,229,5.0,15.0,56,0.00,,CLR,0.00,VWS V14.01,2013-01-19 16:02:00,
2013-01-19 10:04:00,44.2,29.5,30.00,South,187,7.0,15.0,56,0.00,,CLR,0.00,VWS V14.01,2013-01-19 16:04:00,
2013-01-19 10:05:00,44.2,29.5,30.00,SW,229,7.0,15.0,56,0.00,,CLR,0.00,VWS V14.01,2013-01-19 16:05:00,
2013-01-19 10:07:00,44.2,29.5,30.00,South,171,9.0,15.0,56,0.00,,CLR,0.00,VWS V14.01,2013-01-19 16:07:00,
2013-01-19 10:09:00,44.2,29.5,30.00,SSW,207,12.0,17.0,56,0.00,,CLR,0.00,VWS V14.01,2013-01-19 16:09:00,
2013-01-19 10:10:00,44.2,29.5,30.00,SSW,200,9.0,17.0,56,0.00,,CLR,0.00,VWS V14.01,2013-01-19 16:10:00,
2013-01-19 10:12:00,44.4,29.7,30.00,SW,226,5.0,17.0,56,0.00,,CLR,0.00,VWS V14.01,2013-01-19 16:12:00,
2013-01-19 10:15:00,44.5,29.4,29.99,SW,221,9.0,17.0,55,0.00,,CLR,0.00,VWS V14.01,2013-01-19 16:15:00,
2013-01-19 10:17:00,44.7,29.5,29.99,SSW,209,4.0,17.0,55,0.00,,CLR,0.00,VWS V14.01,2013-01-19 16:17:00,
2013-01-19 10:20:00,44.8,29.6,29.99,SSW,211,5.0,17.0,55,0.00,,CLR,0.00,VWS V14.01,2013-01-19 16:20:00,
2013-01-19 10:23:00,44.7,29.1,29.99,SSW,194,7.0,20.0,54,0.00,,CLR,0.00,VWS V14.01,2013-01-19 16:23:00,
2013-01-19 10:25:00,45.0,29.8,29.99,SSW,197,9.0,20.0,55,0.00,,CLR,0.00,VWS V14.01,2013-01-19 16:25:00,
2013-01-19 10:28:00,45.3,29.6,29.99,SW,219,13.0,20.0,54,0.00,,CLR,0.00,VWS V14.01,2013-01-19 16:28:00,
2013-01-19 10:30:00,45.4,29.7,29.98,WSW,242,4.0,11.0,54,0.00,,CLR,0.00,VWS V14.01,2013-01-19 16:30:00,
2013-01-19 10:33:00,45.6,29.9,29.98,SSW,213,12.0,19.0,54,0.00,,CLR,0.00,VWS V14.01,2013-01-19 16:33:00,
2013-01-19 10:35:00,45.6,30.4,29.98,South,188,3.0,19.0,55,0.00,,CLR,0.00,VWS V14.01,2013-01-19 16:35:00,
2013-01-19 10:36:00,45.6,30.4,29.98,SW,223,5.0,19.0,55,0.00,,CLR,0.00,VWS V14.01,2013-01-19 16:36:00,
2013-01-19 10:38:00,45.9,30.2,29.98,SW,223,9.0,19.0,54,0.00,,CLR,0.00,VWS V14.01,2013-01-19 16:38:00,
2013-01-19 10:40:00,45.7,30.0,29.98,SSE,164,8.0,21.0,54,0.00,,CLR,0.00,VWS V14.01,2013-01-19 16:40:00,
2013-01-19 10:41:00,45.7,30.0,29.98,South,189,10.0,21.0,54,0.00,,CLR,0.00,VWS V14.01,2013-01-19 16:41:00,
2013-01-19 10:43:00,45.9,30.2,29.98,SW,220,5.0,21.0,54,0.00,,CLR,0.00,VWS V14.01,2013-01-19 16:43:00,
2013-01-19 10:45:00,46.0,30.3,29.97,SSW,209,5.0,21.0,54,0.00,,CLR,0.00,VWS V14.01,2013-01-19 16:45:00,
2013-01-19 10:46:00,46.0,30.3,29.97,SW,215,12.0,21.0,54,0.00,,CLR,0.00,VWS V14.01,2013-01-19 16:46:00,
2013-01-19 10:48:00,46.1,30.4,29.97,South,189,7.0,21.0,54,0.00,,CLR,0.00,VWS V14.01,2013-01-19 16:48:00,
2013-01-19 10:50:00,46.3,30.6,29.97,SSW,201,8.0,21.0,54,0.00,,CLR,0.00,VWS V14.01,2013-01-19 16:50:00,
2013-01-19 10:51:00,46.3,30.6,29.97,South,185,9.0,21.0,54,0.00,,CLR,0.00,VWS V14.01,2013-01-19 16:51:00,
2013-01-19 10:53:00,46.4,30.7,29.97,SSW,200,7.0,21.0,54,0.00,,CLR,0.00,VWS V14.01,2013-01-19 16:53:00,
2013-01-19 10:55:00,46.6,30.9,29.97,SSW,193,9.0,21.0,54,0.00,,CLR,0.00,VWS V14.01,2013-01-19 16:55:00,
2013-01-19 10:56:00,46.6,30.4,29.97,SSW,196,12.0,21.0,53,0.00,,CLR,0.00,VWS V14.01,2013-01-19 16:56:00,
2013-01-19 10:59:00,46.6,30.4,29.95,SSW,198,7.0,21.0,53,0.00,,CLR,0.00,VWS V14.01,2013-01-19 16:59:00,
2013-01-19 11:00:00,46.7,31.0,29.95,SW,219,7.0,16.0,54,0.00,,CLR,0.00,VWS V14.01,2013-01-19 17:00:00,
2013-01-19 11:02:00,46.7,31.0,29.95,SW,227,14.0,16.0,54,0.00,,CLR,0.00,VWS V14.01,2013-01-19 17:02:00,
2013-01-19 11:04:00,47.0,30.8,29.95,SSW,205,7.0,16.0,53,0.00,,CLR,0.00,VWS V14.01,2013-01-19 17:04:00,
2013-01-19 11:05:00,47.2,31.0,29.95,SW,217,9.0,18.0,53,0.00,,CLR,0.00,VWS V14.01,2013-01-19 17:05:00,
2013-01-19 11:07:00,47.0,30.8,29.95,SW,223,9.0,18.0,53,0.00,,CLR,0.00,VWS V14.01,2013-01-19 17:07:00,
2013-01-19 11:12:00,47.5,31.2,29.95,SW,221,9.0,18.0,53,0.00,,CLR,0.00,VWS V14.01,2013-01-19 17:12:00,
2013-01-19 11:13:00,47.6,31.3,29.95,South,182,5.0,18.0,53,0.00,,CLR,0.00,VWS V14.01,2013-01-19 17:13:00,
2013-01-19 11:17:00,47.9,31.6,29.95,SW,219,3.0,18.0,53,0.00,,CLR,0.00,VWS V14.01,2013-01-19 17:17:00,
2013-01-19 11:18:00,48.1,31.3,29.95,SW,217,5.0,18.0,52,0.00,,CLR,0.00,VWS V14.01,2013-01-19 17:18:00,
2013-01-19 11:22:00,48.5,31.7,29.95,SSW,198,10.0,18.0,52,0.00,,CLR,0.00,VWS V14.01,2013-01-19 17:22:00,
2013-01-19 11:23:00,48.8,32.0,29.95,WSW,252,7.0,18.0,52,0.00,,CLR,0.00,VWS V14.01,2013-01-19 17:23:00,
2013-01-19 11:28:00,49.0,31.7,29.95,WSW,254,7.0,18.0,51,0.00,,CLR,0.00,VWS V14.01,2013-01-19 17:28:00,
2013-01-19 11:29:00,48.8,31.5,29.94,SW,225,7.0,18.0,51,0.00,,CLR,0.00,VWS V14.01,2013-01-19 17:29:00,
2013-01-19 11:30:00,48.8,31.5,29.94,SW,217,6.0,18.0,51,0.00,,,0.00,VWS V14.01,2013-01-19 17:30:00,
2013-01-19 11:33:00,49.0,31.7,29.94,SSW,211,11.0,13.0,51,0.00,,CLR,0.00,VWS V14.01,2013-01-19 17:33:00,
2013-01-19 11:34:00,49.0,31.7,29.94,SW,217,12.0,14.0,51,0.00,,CLR,0.00,VWS V14.01,2013-01-19 17:34:00,
2013-01-19 11:38:00,49.3,32.4,29.94,South,188,4.0,14.0,52,0.00,,CLR,0.00,VWS V14.01,2013-01-19 17:38:00,
2013-01-19 11:39:00,49.3,32.0,29.94,SW,219,10.0,14.0,51,0.00,,CLR,0.00,VWS V14.01,2013-01-19 17:39:00,
2013-01-19 11:43:00,49.4,32.0,29.94,SW,223,9.0,15.0,51,0.00,,CLR,0.00,VWS V14.01,2013-01-19 17:43:00,
2013-01-19 11:44:00,49.4,32.0,29.93,SSE,167,10.0,15.0,51,0.00,,CLR,0.00,VWS V14.01,2013-01-19 17:44:00,
2013-01-19 11:48:00,49.7,32.3,29.93,SW,236,4.0,16.0,51,0.00,,CLR,0.00,VWS V14.01,2013-01-19 17:48:00,
2013-01-19 11:49:00,49.8,32.9,29.93,West,259,10.0,16.0,52,0.00,,CLR,0.00,VWS V14.01,2013-01-19 17:49:00,
2013-01-19 11:53:00,50.3,32.4,29.93,SSW,200,11.0,16.0,50,0.00,,CLR,0.00,VWS V14.01,2013-01-19 17:53:00,
2013-01-19 11:54:00,50.3,32.9,29.93,SW,234,6.0,16.0,51,0.00,,CLR,0.00,VWS V14.01,2013-01-19 17:54:00,
2013-01-19 11:58:00,50.6,33.2,29.93,SSW,195,4.0,16.0,51,0.00,,CLR,0.00,VWS V14.01,2013-01-19 17:58:00,
2013-01-19 11:59:00,50.7,33.2,29.91,SSW,195,10.0,16.0,51,0.00,,CLR,0.00,VWS V14.01,2013-01-19 17:59:00,
2013-01-19 12:00:00,50.7,33.2,29.91,SW,235,5.0,16.0,51,0.00,,,0.00,VWS V14.01,2013-01-19 18:00:00,
2013-01-19 12:03:00,51.2,33.2,29.91,SW,219,7.0,10.0,50,0.00,,CLR,0.00,VWS V14.01,2013-01-19 18:03:00,
2013-01-19 12:04:00,51.3,32.8,29.91,SSW,200,4.0,10.0,49,0.00,,CLR,0.00,VWS V14.01,2013-01-19 18:04:00,
2013-01-19 12:09:00,51.5,33.0,29.91,SSW,204,8.0,16.0,49,0.00,,CLR,0.00,VWS V14.01,2013-01-19 18:09:00,
2013-01-19 12:10:00,51.5,33.0,29.91,South,183,12.0,19.0,49,0.00,,CLR,0.00,VWS V14.01,2013-01-19 18:10:00,
2013-01-19 12:14:00,51.5,33.5,29.90,SW,219,6.0,19.0,50,0.00,,CLR,0.00,VWS V14.01,2013-01-19 18:14:00,
2013-01-19 12:15:00,51.6,33.6,29.90,SSW,207,7.0,19.0,50,0.00,,CLR,0.00,VWS V14.01,2013-01-19 18:15:00,
2013-01-19 12:20:00,51.6,33.1,29.90,SSW,194,5.0,19.0,49,0.00,,CLR,0.00,VWS V14.01,2013-01-19 18:20:00,
2013-01-19 12:25:00,51.8,33.3,29.90,SSW,207,10.0,19.0,49,0.00,,CLR,0.00,VWS V14.01,2013-01-19 18:25:00,
2013-01-19 12:30:00,51.8,33.3,29.89,South,190,16.0,16.0,49,0.00,,CLR,0.00,VWS V14.01,2013-01-19 18:30:00,
2013-01-19 12:31:00,51.8,33.3,29.89,SSW,201,12.0,20.0,49,0.00,,CLR,0.00,VWS V14.01,2013-01-19 18:31:00,
2013-01-19 12:35:00,51.9,33.4,29.89,SSW,196,7.0,20.0,49,0.00,,CLR,0.00,VWS V14.01,2013-01-19 18:35:00,
2013-01-19 12:36:00,52.1,33.5,29.89,SSW,204,14.0,23.0,49,0.00,,CLR,0.00,VWS V14.01,2013-01-19 18:36:00,
2013-01-19 12:40:00,52.2,33.1,29.89,SW,231,10.0,23.0,48,0.00,,CLR,0.00,VWS V14.01,2013-01-19 18:40:00,
2013-01-19 12:41:00,52.2,33.1,29.89,SSW,207,11.0,23.0,48,0.00,,CLR,0.00,VWS V14.01,2013-01-19 18:41:00,
2013-01-19 12:45:00,52.8,34.2,29.88,WSW,253,7.0,23.0,49,0.00,,CLR,0.00,VWS V14.01,2013-01-19 18:45:00,
2013-01-19 12:46:00,53.0,33.8,29.88,SSW,196,9.0,23.0,48,0.00,,CLR,0.00,VWS V14.01,2013-01-19 18:46:00,
2013-01-19 12:50:00,53.0,33.8,29.88,SW,227,10.0,23.0,48,0.00,,CLR,0.00,VWS V14.01,2013-01-19 18:50:00,
2013-01-19 12:52:00,53.1,33.4,29.88,SW,220,6.0,23.0,47,0.00,,CLR,0.00,VWS V14.01,2013-01-19 18:52:00,
2013-01-19 12:55:00,53.5,33.8,29.88,SSW,209,4.0,23.0,47,0.00,,CLR,0.00,VWS V14.01,2013-01-19 18:55:00,
2013-01-19 12:57:00,53.7,34.0,29.88,SSW,202,10.0,23.0,47,0.00,,CLR,0.00,VWS V14.01,2013-01-19 18:57:00,
2013-01-19 13:00:00,54.0,33.7,29.87,SSW,202,7.0,23.0,46,0.00,,,0.00,VWS V14.01,2013-01-19 19:00:00,
2013-01-19 13:01:00,54.1,33.8,29.87,SSW,203,5.0,10.0,46,0.00,,CLR,0.00,VWS V14.01,2013-01-19 19:01:00,
2013-01-19 13:02:00,54.1,33.8,29.87,SSW,196,10.0,11.0,46,0.00,,CLR,0.00,VWS V14.01,2013-01-19 19:02:00,
2013-01-19 13:07:00,54.4,33.5,29.87,SSW,213,9.0,16.0,45,0.00,,CLR,0.00,VWS V14.01,2013-01-19 19:07:00,
2013-01-19 13:13:00,54.4,34.1,29.87,SW,223,8.0,17.0,46,0.00,,CLR,0.00,VWS V14.01,2013-01-19 19:13:00,
2013-01-19 13:14:00,54.4,33.5,29.86,SSW,209,10.0,17.0,45,0.00,,CLR,0.00,VWS V14.01,2013-01-19 19:14:00,
2013-01-19 13:18:00,54.6,33.7,29.86,SSW,202,6.0,17.0,45,0.00,,CLR,0.00,VWS V14.01,2013-01-19 19:18:00,
2013-01-19 13:19:00,54.6,34.2,29.86,SSW,205,10.0,17.0,46,0.00,,CLR,0.00,VWS V14.01,2013-01-19 19:19:00,
2013-01-19 13:23:00,54.7,33.8,29.86,SW,217,8.0,19.0,45,0.00,,CLR,0.00,VWS V14.01,2013-01-19 19:23:00,
2013-01-19 13:25:00,54.7,34.3,29.86,SW,222,9.0,19.0,46,0.00,,CLR,0.00,VWS V14.01,2013-01-19 19:25:00,
2013-01-19 13:28:00,54.7,34.3,29.86,SW,221,6.0,19.0,46,0.00,,CLR,0.00,VWS V14.01,2013-01-19 19:28:00,
2013-01-19 13:30:00,54.9,34.5,29.85,SSW,197,17.0,17.0,46,0.00,,CLR,0.00,VWS V14.01,2013-01-19 19:30:00,
2013-01-19 13:34:00,55.0,34.6,29.85,South,173,10.0,17.0,46,0.00,,CLR,0.00,VWS V14.01,2013-01-19 19:34:00,
2013-01-19 13:35:00,55.0,34.6,29.85,SSW,197,6.0,17.0,46,0.00,,CLR,0.00,VWS V14.01,2013-01-19 19:35:00,
2013-01-19 13:39:00,55.6,35.2,29.85,SW,217,5.0,17.0,46,0.00,,CLR,0.00,VWS V14.01,2013-01-19 19:39:00,
2013-01-19 13:40:00,55.5,35.1,29.85,South,189,6.0,17.0,46,0.00,,CLR,0.00,VWS V14.01,2013-01-19 19:40:00,
2013-01-19 13:44:00,55.6,35.7,29.86,South,177,3.0,17.0,47,0.00,,CLR,0.00,VWS V14.01,2013-01-19 19:44:00,
2013-01-19 13:45:00,55.8,35.3,29.86,SSW,210,3.0,17.0,46,0.00,,CLR,0.00,VWS V14.01,2013-01-19 19:45:00,
2013-01-19 13:50:00,56.5,36.0,29.86,SW,228,6.0,17.0,46,0.00,,CLR,0.00,VWS V14.01,2013-01-19 19:50:00,
2013-01-19 13:52:00,56.5,35.4,29.86,WSW,244,3.0,17.0,45,0.00,,CLR,0.00,VWS V14.01,2013-01-19 19:52:00,
2013-01-19 13:55:00,56.6,36.1,29.86,SSW,192,12.0,17.0,46,0.00,,CLR,0.00,VWS V14.01,2013-01-19 19:55:00,
2013-01-19 13:57:00,56.6,36.1,29.86,SSW,195,7.0,17.0,46,0.00,,CLR,0.00,VWS V14.01,2013-01-19 19:57:00,
2013-01-19 14:00:00,56.6,36.1,29.86,SW,227,4.0,17.0,46,0.00,,,0.00,VWS V14.01,2013-01-19 20:00:00,
2013-01-19 14:01:00,56.8,36.3,29.86,SW,235,5.0,5.0,46,0.00,,CLR,0.00,VWS V14.01,2013-01-19 20:01:00,
2013-01-19 14:03:00,56.9,36.3,29.86,SSW,209,5.0,10.0,46,0.00,,CLR,0.00,VWS V14.01,2013-01-19 20:03:00,
2013-01-19 14:06:00,56.9,36.3,29.86,WSW,239,7.0,11.0,46,0.00,,CLR,0.00,VWS V14.01,2013-01-19 20:06:00,
2013-01-19 14:08:00,57.1,36.5,29.86,SSW,205,4.0,13.0,46,0.00,,CLR,0.00,VWS V14.01,2013-01-19 20:08:00,
2013-01-19 14:11:00,57.2,36.6,29.86,SSW,204,6.0,13.0,46,0.00,,CLR,0.00,VWS V14.01,2013-01-19 20:11:00,
2013-01-19 14:13:00,57.2,36.6,29.86,SW,215,5.0,13.0,46,0.00,,CLR,0.00,VWS V14.01,2013-01-19 20:13:00,
2013-01-19 14:17:00,57.1,36.5,29.85,South,178,12.0,13.0,46,0.00,,CLR,0.00,VWS V14.01,2013-01-19 20:17:00,
2013-01-19 14:19:00,57.1,36.5,29.85,SSW,201,2.0,13.0,46,0.00,,CLR,0.00,VWS V14.01,2013-01-19 20:19:00,
2013-01-19 14:22:00,57.4,36.2,29.85,SSW,204,6.0,13.0,45,0.00,,CLR,0.00,VWS V14.01,2013-01-19 20:22:00,
2013-01-19 14:24:00,57.5,36.3,29.85,SSW,198,6.0,15.0,45,0.00,,CLR,0.00,VWS V14.01,2013-01-19 20:24:00,
2013-01-19 14:27:00,57.9,37.3,29.85,SW,215,6.0,15.0,46,0.00,,CLR,0.00,VWS V14.01,2013-01-19 20:27:00,
2013-01-19 14:29:00,57.9,36.7,29.84,SSW,207,5.0,15.0,45,0.00,,CLR,0.00,VWS V14.01,2013-01-19 20:29:00,
2013-01-19 14:30:00,57.9,36.7,29.84,WSW,244,5.0,15.0,45,0.00,,,0.00,VWS V14.01,2013-01-19 20:30:00,
2013-01-19 14:33:00,58.0,36.8,29.84,SW,218,0.0,7.0,45,0.00,,CLR,0.00,VWS V14.01,2013-01-19 20:33:00,
2013-01-19 14:35:00,58.2,36.4,29.84,WSW,251,7.0,9.0,44,0.00,,CLR,0.00,VWS V14.01,2013-01-19 20:35:00,
2013-01-19 14:38:00,58.2,37.0,29.84,SSW,211,3.0,10.0,45,0.00,,CLR,0.00,VWS V14.01,2013-01-19 20:38:00,
2013-01-19 14:40:00,58.5,36.1,29.84,SSW,202,4.0,12.0,43,0.00,,CLR,0.00,VWS V14.01,2013-01-19 20:40:00,
2013-01-19 14:44:00,58.6,36.8,29.85,SSW,211,14.0,14.0,44,0.00,,CLR,0.00,VWS V14.01,2013-01-19 20:44:00,
2013-01-19 14:45:00,58.5,36.1,29.85,SW,217,8.0,14.0,43,0.00,,CLR,0.00,VWS V14.01,2013-01-19 20:45:00,
2013-01-19 14:49:00,58.5,36.7,29.85,SW,229,4.0,14.0,44,0.00,,CLR,0.00,VWS V14.01,2013-01-19 20:49:00,
2013-01-19 14:53:00,58.3,36.5,29.85,South,190,5.0,14.0,44,0.00,,CLR,0.00,VWS V14.01,2013-01-19 20:53:00,
2013-01-19 14:54:00,58.3,36.5,29.85,SSE,161,4.0,14.0,44,0.00,,CLR,0.00,VWS V14.01,2013-01-19 20:54:00,
2013-01-19 14:58:00,58.0,36.8,29.85,SW,214,6.0,14.0,45,0.00,,CLR,0.00,VWS V14.01,2013-01-19 20:58:00,
2013-01-19 14:59:00,58.0,36.8,29.85,SSW,209,5.0,14.0,45,0.00,,CLR,0.00,VWS V14.01,2013-01-19 20:59:00,
2013-01-19 15:00:00,58.0,36.8,29.85,SSW,200,3.0,14.0,45,0.00,,,0.00,VWS V14.01,2013-01-19 21:00:00,
2013-01-19 15:03:00,57.9,36.7,29.85,South,180,4.0,11.0,45,0.00,,CLR,0.00,VWS V14.01,2013-01-19 21:03:00,
2013-01-19 15:04:00,58.0,36.8,29.85,SSW,204,5.0,11.0,45,0.00,,CLR,0.00,VWS V14.01,2013-01-19 21:04:00,
2013-01-19 15:08:00,58.0,36.8,29.85,SSW,202,4.0,11.0,45,0.00,,CLR,0.00,VWS V14.01,2013-01-19 21:08:00,
2013-01-19 15:09:00,58.0,36.8,29.85,SSW,193,2.0,11.0,45,0.00,,CLR,0.00,VWS V14.01,2013-01-19 21:09:00,
2013-01-19 15:14:00,58.3,37.1,29.84,SSW,209,8.0,11.0,45,0.00,,CLR,0.00,VWS V14.01,2013-01-19 21:14:00,
2013-01-19 15:19:00,58.6,37.3,29.84,SSW,196,5.0,12.0,45,0.00,,CLR,0.00,VWS V14.01,2013-01-19 21:19:00,
2013-01-19 15:20:00,58.6,37.3,29.84,SSW,210,5.0,12.0,45,0.00,,CLR,0.00,VWS V14.01,2013-01-19 21:20:00,
2013-01-19 15:24:00,58.6,37.3,29.84,South,188,4.0,12.0,45,0.00,,CLR,0.00,VWS V14.01,2013-01-19 21:24:00,
2013-01-19 15:25:00,58.6,37.3,29.84,SSW,206,7.0,12.0,45,0.00,,CLR,0.00,VWS V14.01,2013-01-19 21:25:00,
2013-01-19 15:29:00,58.5,37.2,29.84,SSW,199,4.0,12.0,45,0.00,,CLR,0.00,VWS V14.01,2013-01-19 21:29:00,
2013-01-19 15:30:00,58.5,37.2,29.84,SSW,199,4.0,12.0,45,0.00,,,0.00,VWS V14.01,2013-01-19 21:30:00,
2013-01-19 15:31:00,58.3,37.1,29.84,SSW,200,3.0,4.0,45,0.00,,CLR,0.00,VWS V14.01,2013-01-19 21:31:00,
2013-01-19 15:35:00,58.2,37.5,29.84,SSW,213,3.0,10.0,46,0.00,,CLR,0.00,VWS V14.01,2013-01-19 21:35:00,
2013-01-19 15:36:00,58.2,37.5,29.84,South,185,2.0,10.0,46,0.00,,CLR,0.00,VWS V14.01,2013-01-19 21:36:00,
2013-01-19 15:42:00,58.5,38.4,29.84,SW,234,2.0,10.0,47,0.00,,CLR,0.00,VWS V14.01,2013-01-19 21:42:00,
2013-01-19 15:43:00,58.5,38.4,29.84,SW,232,4.0,10.0,47,0.00,,CLR,0.00,VWS V14.01,2013-01-19 21:43:00,
2013-01-19 15:48:00,58.5,38.4,29.85,SW,231,0.0,10.0,47,0.00,,CLR,0.00,VWS V14.01,2013-01-19 21:48:00,
2013-01-19 15:53:00,58.6,37.9,29.85,SW,229,0.0,10.0,46,0.00,,CLR,0.00,VWS V14.01,2013-01-19 21:53:00,
2013-01-19 15:58:00,58.8,36.4,29.85,SW,217,3.0,10.0,43,0.00,,CLR,0.00,VWS V14.01,2013-01-19 21:58:00,
2013-01-19 16:00:00,58.9,35.9,29.86,SSW,213,4.0,10.0,42,0.00,,,0.00,VWS V14.01,2013-01-19 22:00:00,
2013-01-19 16:04:00,59.1,34.8,29.86,SW,232,3.0,10.0,40,0.00,,CLR,0.00,VWS V14.01,2013-01-19 22:04:00,
2013-01-19 16:09:00,59.4,35.1,29.86,SW,227,4.0,10.0,40,0.00,,CLR,0.00,VWS V14.01,2013-01-19 22:09:00,
2013-01-19 16:14:00,59.2,34.3,29.86,WSW,241,2.0,10.0,39,0.00,,CLR,0.00,VWS V14.01,2013-01-19 22:14:00,
2013-01-19 16:19:00,59.1,34.8,29.86,SW,230,3.0,10.0,40,0.00,,CLR,0.00,VWS V14.01,2013-01-19 22:19:00,
2013-01-19 16:24:00,58.9,34.6,29.86,WSW,247,4.0,10.0,40,0.00,,CLR,0.00,VWS V14.01,2013-01-19 22:24:00,
2013-01-19 16:25:00,58.9,34.6,29.86,WSW,240,4.0,10.0,40,0.00,,CLR,0.00,VWS V14.01,2013-01-19 22:25:00,
2013-01-19 16:30:00,58.8,34.5,29.86,WSW,242,0.0,10.0,40,0.00,,CLR,0.00,VWS V14.01,2013-01-19 22:30:00,
2013-01-19 16:35:00,58.6,34.4,29.86,WSW,237,2.0,7.0,40,0.00,,CLR,0.00,VWS V14.01,2013-01-19 22:35:00,
2013-01-19 16:36:00,58.5,34.3,29.86,SW,218,4.0,7.0,40,0.00,,CLR,0.00,VWS V14.01,2013-01-19 22:36:00,
2013-01-19 16:40:00,58.2,34.0,29.86,WSW,245,4.0,7.0,40,0.00,,CLR,0.00,VWS V14.01,2013-01-19 22:40:00,
2013-01-19 16:41:00,58.2,34.0,29.86,SSW,205,0.0,7.0,40,0.00,,CLR,0.00,VWS V14.01,2013-01-19 22:41:00,
2013-01-19 16:45:00,58.0,33.8,29.87,SW,222,4.0,7.0,40,0.00,,CLR,0.00,VWS V14.01,2013-01-19 22:45:00,
2013-01-19 16:47:00,57.9,33.8,29.87,SW,236,5.0,7.0,40,0.00,,CLR,0.00,VWS V14.01,2013-01-19 22:47:00,
2013-01-19 16:51:00,57.5,33.4,29.87,SW,225,5.0,7.0,40,0.00,,CLR,0.00,VWS V14.01,2013-01-19 22:51:00,
2013-01-19 16:53:00,57.5,34.0,29.87,SW,234,0.0,7.0,41,0.00,,CLR,0.00,VWS V14.01,2013-01-19 22:53:00,
2013-01-19 16:56:00,57.2,33.7,29.87,SSW,209,2.0,7.0,41,0.00,,CLR,0.00,VWS V14.01,2013-01-19 22:56:00,
2013-01-19 16:58:00,57.2,33.7,29.87,WSW,240,5.0,7.0,41,0.00,,CLR,0.00,VWS V14.01,2013-01-19 22:58:00,
2013-01-19 17:00:00,57.2,33.7,29.87,SW,220,1.0,7.0,41,0.00,,,0.00,VWS V14.01,2013-01-19 23:00:00,
2013-01-19 17:02:00,56.9,33.5,29.87,SW,225,2.0,4.0,41,0.00,,CLR,0.00,VWS V14.01,2013-01-19 23:02:00,
2013-01-19 17:03:00,56.9,33.5,29.87,SW,225,3.0,4.0,41,0.00,,CLR,0.00,VWS V14.01,2013-01-19 23:03:00,
2013-01-19 17:07:00,56.6,33.8,29.87,SW,223,3.0,5.0,42,0.00,,CLR,0.00,VWS V14.01,2013-01-19 23:07:00,
2013-01-19 17:10:00,56.5,33.7,29.87,SW,224,2.0,5.0,42,0.00,,CLR,0.00,VWS V14.01,2013-01-19 23:10:00,
2013-01-19 17:12:00,56.5,33.7,29.87,SW,224,0.0,5.0,42,0.00,,CLR,0.00,VWS V14.01,2013-01-19 23:12:00,
2013-01-19 17:15:00,56.4,33.6,29.88,SW,223,0.0,5.0,42,0.00,,CLR,0.00,VWS V14.01,2013-01-19 23:15:00,
2013-01-19 17:18:00,56.2,33.4,29.88,SW,225,0.0,5.0,42,0.00,,CLR,0.00,VWS V14.01,2013-01-19 23:18:00,
2013-01-19 17:20:00,56.1,33.9,29.88,SW,225,0.0,5.0,43,0.00,,CLR,0.00,VWS V14.01,2013-01-19 23:20:00,
2013-01-19 17:23:00,55.9,33.8,29.88,SW,224,0.0,5.0,43,0.00,,CLR,0.00,VWS V14.01,2013-01-19 23:23:00,
2013-01-19 17:26:00,55.6,33.5,29.88,SW,224,0.0,5.0,43,0.00,,CLR,0.00,VWS V14.01,2013-01-19 23:26:00,
2013-01-19 17:28:00,55.6,33.5,29.88,SW,224,0.0,5.0,43,0.00,,CLR,0.00,VWS V14.01,2013-01-19 23:28:00,
2013-01-19 17:30:00,55.6,33.5,29.88,SW,227,0.0,5.0,43,0.00,,,0.00,VWS V14.01,2013-01-19 23:30:00,
2013-01-19 17:32:00,55.5,33.4,29.88,SSW,208,4.0,6.0,43,0.00,,CLR,0.00,VWS V14.01,2013-01-19 23:32:00,
2013-01-19 17:33:00,55.5,33.4,29.88,SSW,208,1.0,6.0,43,0.00,,CLR,0.00,VWS V14.01,2013-01-19 23:33:00,
2013-01-19 17:37:00,55.3,33.2,29.88,WSW,247,2.0,6.0,43,0.00,,CLR,0.00,VWS V14.01,2013-01-19 23:37:00,
2013-01-19 17:38:00,55.3,33.2,29.88,WSW,245,4.0,6.0,43,0.00,,CLR,0.00,VWS V14.01,2013-01-19 23:38:00,
2013-01-19 17:43:00,55.0,33.5,29.88,SW,228,3.0,6.0,44,0.00,,CLR,0.00,VWS V14.01,2013-01-19 23:43:00,
2013-01-19 17:48:00,55.0,33.5,29.88,SW,225,2.0,6.0,44,0.00,,CLR,0.00,VWS V14.01,2013-01-19 23:48:00,
2013-01-19 17:53:00,55.0,32.9,29.88,SW,220,3.0,6.0,43,0.00,,CLR,0.00,VWS V14.01,2013-01-19 23:53:00,
2013-01-19 17:55:00,55.0,32.9,29.88,SW,228,0.0,6.0,43,0.00,,CLR,0.00,VWS V14.01,2013-01-19 23:55:00,
2013-01-19 17:58:00,55.0,32.9,29.88,SW,225,0.0,6.0,43,0.00,,CLR,0.00,VWS V14.01,2013-01-19 23:58:00,
2013-01-19 18:00:00,55.0,32.9,29.88,SW,225,0.0,3.0,43,0.00,,CLR,0.00,VWS V14.01,2013-01-20 00:00:00,
2013-01-19 18:03:00,54.9,32.8,29.88,SW,224,5.0,5.0,43,0.00,,CLR,0.00,VWS V14.01,2013-01-20 00:03:00,
2013-01-19 18:06:00,54.9,32.8,29.88,SW,220,3.0,5.0,43,0.00,,CLR,0.00,VWS V14.01,2013-01-20 00:06:00,
2013-01-19 18:09:00,54.9,32.8,29.88,SW,220,1.0,5.0,43,0.00,,CLR,0.00,VWS V14.01,2013-01-20 00:09:00,
2013-01-19 18:11:00,54.7,32.7,29.88,SSW,205,1.0,5.0,43,0.00,,CLR,0.00,VWS V14.01,2013-01-20 00:11:00,
2013-01-19 18:14:00,54.6,32.6,29.89,SW,233,6.0,6.0,43,0.00,,CLR,0.00,VWS V14.01,2013-01-20 00:14:00,
2013-01-19 18:17:00,54.6,32.6,29.89,SW,236,3.0,6.0,43,0.00,,CLR,0.00,VWS V14.01,2013-01-20 00:17:00,
2013-01-19 18:19:00,54.4,32.4,29.89,SW,234,2.0,6.0,43,0.00,,CLR,0.00,VWS V14.01,2013-01-20 00:19:00,
2013-01-19 18:22:00,54.4,33.0,29.89,West,263,3.0,7.0,44,0.00,,CLR,0.00,VWS V14.01,2013-01-20 00:22:00,
2013-01-19 18:25:00,54.3,32.9,29.89,WSW,251,1.0,7.0,44,0.00,,CLR,0.00,VWS V14.01,2013-01-20 00:25:00,
2013-01-19 18:27:00,54.3,32.9,29.89,SW,232,0.0,7.0,44,0.00,,CLR,0.00,VWS V14.01,2013-01-20 00:27:00,
2013-01-19 18:30:00,54.1,32.7,29.91,WSW,253,2.0,2.0,44,0.00,,CLR,0.00,VWS V14.01,2013-01-20 00:30:00,
2013-01-19 18:32:00,54.1,32.7,29.91,WSW,248,0.0,3.0,44,0.00,,CLR,0.00,VWS V14.01,2013-01-20 00:32:00,
2013-01-19 18:36:00,53.8,32.4,29.91,SW,235,0.0,4.0,44,0.00,,CLR,0.00,VWS V14.01,2013-01-20 00:36:00,
2013-01-19 18:38:00,53.8,32.4,29.91,WSW,256,5.0,6.0,44,0.00,,CLR,0.00,VWS V14.01,2013-01-20 00:38:00,
2013-01-19 18:43:00,53.8,33.0,29.91,WSW,254,0.0,6.0,45,0.00,,CLR,0.00,VWS V14.01,2013-01-20 00:43:00,
2013-01-19 18:48:00,53.5,32.7,29.92,West,265,3.0,6.0,45,0.00,,CLR,0.00,VWS V14.01,2013-01-20 00:48:00,
2013-01-19 18:49:00,53.5,32.7,29.92,West,262,3.0,6.0,45,0.00,,CLR,0.00,VWS V14.01,2013-01-20 00:49:00,
2013-01-19 18:54:00,53.4,32.6,29.92,West,266,0.0,6.0,45,0.00,,CLR,0.00,VWS V14.01,2013-01-20 00:54:00,
2013-01-19 18:59:00,53.1,32.9,29.94,WSW,252,5.0,6.0,46,0.00,,CLR,0.00,VWS V14.01,2013-01-20 00:59:00,
2013-01-19 19:00:00,53.1,32.9,29.94,WSW,253,0.0,6.0,46,0.00,,,0.00,VWS V14.01,2013-01-20 01:00:00,
2013-01-19 19:04:00,53.0,32.8,29.94,West,279,0.0,6.0,46,0.00,,CLR,0.00,VWS V14.01,2013-01-20 01:04:00,
2013-01-19 19:09:00,52.5,32.9,29.94,WSW,248,0.0,6.0,47,0.00,,CLR,0.00,VWS V14.01,2013-01-20 01:09:00,
2013-01-19 19:14:00,52.4,32.8,29.94,WSW,252,0.0,6.0,47,0.00,,CLR,0.00,VWS V14.01,2013-01-20 01:14:00,
2013-01-19 19:15:00,52.4,32.8,29.94,WSW,252,0.0,6.0,47,0.00,,CLR,0.00,VWS V14.01,2013-01-20 01:15:00,
2013-01-19 19:19:00,52.2,32.6,29.94,West,277,1.0,7.0,47,0.00,,CLR,0.00,VWS V14.01,2013-01-20 01:19:00,
2013-01-19 19:20:00,52.2,32.6,29.94,WSW,241,2.0,7.0,47,0.00,,CLR,0.00,VWS V14.01,2013-01-20 01:20:00,
2013-01-19 19:25:00,52.1,32.5,29.94,WNW,289,0.0,7.0,47,0.00,,CLR,0.00,VWS V14.01,2013-01-20 01:25:00,
2013-01-19 19:30:00,51.9,32.8,29.95,WNW,284,0.0,1.0,48,0.00,,CLR,0.00,VWS V14.01,2013-01-20 01:30:00,
2013-01-19 19:35:00,51.6,32.6,29.95,West,271,0.0,6.0,48,0.00,,CLR,0.00,VWS V14.01,2013-01-20 01:35:00,
2013-01-19 19:40:00,51.5,32.5,29.95,West,270,0.0,6.0,48,0.00,,CLR,0.00,VWS V14.01,2013-01-20 01:40:00,
2013-01-19 19:41:00,51.5,32.5,29.95,West,271,0.0,6.0,48,0.00,,CLR,0.00,VWS V14.01,2013-01-20 01:41:00,
2013-01-19 19:45:00,51.5,32.5,29.95,WNW,284,4.0,7.0,48,0.00,,CLR,0.00,VWS V14.01,2013-01-20 01:45:00,
2013-01-19 19:46:00,51.5,32.5,29.95,WNW,285,3.0,7.0,48,0.00,,CLR,0.00,VWS V14.01,2013-01-20 01:46:00,
2013-01-19 19:51:00,51.3,32.3,29.95,West,260,4.0,9.0,48,0.00,,CLR,0.00,VWS V14.01,2013-01-20 01:51:00,
2013-01-19 19:52:00,51.3,32.3,29.95,West,275,5.0,9.0,48,0.00,,CLR,0.00,VWS V14.01,2013-01-20 01:52:00,
2013-01-19 19:56:00,51.5,32.5,29.95,WNW,294,4.0,10.0,48,0.00,,CLR,0.00,VWS V14.01,2013-01-20 01:56:00,
2013-01-19 19:57:00,51.5,32.5,29.95,West,275,6.0,10.0,48,0.00,,CLR,0.00,VWS V14.01,2013-01-20 01:57:00,
2013-01-19 20:00:00,51.6,32.6,29.96,West,261,0.0,11.0,48,0.00,,,0.00,VWS V14.01,2013-01-20 02:00:00,
2013-01-19 20:01:00,51.6,32.6,29.96,WSW,242,5.0,10.0,48,0.00,,CLR,0.00,VWS V14.01,2013-01-20 02:01:00,
2013-01-19 20:02:00,51.6,32.6,29.96,West,261,3.0,10.0,48,0.00,,CLR,0.00,VWS V14.01,2013-01-20 02:02:00,
2013-01-19 20:07:00,51.6,32.6,29.96,West,277,0.0,10.0,48,0.00,,CLR,0.00,VWS V14.01,2013-01-20 02:07:00,
2013-01-19 20:08:00,51.6,32.6,29.96,WSW,250,3.0,10.0,48,0.00,,CLR,0.00,VWS V14.01,2013-01-20 02:08:00,
2013-01-19 20:12:00,51.8,32.8,29.96,WNW,282,3.0,13.0,48,0.00,,CLR,0.00,VWS V14.01,2013-01-20 02:12:00,
2013-01-19 20:13:00,51.8,32.8,29.96,WNW,284,5.0,13.0,48,0.00,,CLR,0.00,VWS V14.01,2013-01-20 02:13:00,
2013-01-19 20:17:00,51.5,33.0,29.96,West,267,2.0,13.0,49,0.00,,CLR,0.00,VWS V14.01,2013-01-20 02:17:00,
2013-01-19 20:18:00,51.5,33.0,29.96,West,281,1.0,13.0,49,0.00,,CLR,0.00,VWS V14.01,2013-01-20 02:18:00,
2013-01-19 20:22:00,51.3,32.8,29.96,West,275,2.0,13.0,49,0.00,,CLR,0.00,VWS V14.01,2013-01-20 02:22:00,
2013-01-19 20:24:00,51.3,33.3,29.96,West,280,7.0,13.0,50,0.00,,CLR,0.00,VWS V14.01,2013-01-20 02:24:00,
2013-01-19 20:28:00,51.2,32.7,29.96,WSW,257,3.0,13.0,49,0.00,,CLR,0.00,VWS V14.01,2013-01-20 02:28:00,
2013-01-19 20:29:00,51.2,32.7,29.96,West,271,4.0,13.0,49,0.00,,CLR,0.00,VWS V14.01,2013-01-20 02:29:00,
2013-01-19 20:30:00,51.2,33.2,29.96,West,264,0.0,13.0,50,0.00,,,0.00,VWS V14.01,2013-01-20 02:30:00,
2013-01-19 20:33:00,51.0,33.0,29.96,West,275,7.0,11.0,50,0.00,,CLR,0.00,VWS V14.01,2013-01-20 02:33:00,
2013-01-19 20:34:00,51.0,33.0,29.96,WSW,254,5.0,13.0,50,0.00,,CLR,0.00,VWS V14.01,2013-01-20 02:34:00,
2013-01-19 20:38:00,51.0,33.0,29.96,West,278,2.0,13.0,50,0.00,,CLR,0.00,VWS V14.01,2013-01-20 02:38:00,
2013-01-19 20:39:00,51.0,33.0,29.96,WNW,293,13.0,13.0,50,0.00,,CLR,0.00,VWS V14.01,2013-01-20 02:39:00,
2013-01-19 20:43:00,50.9,32.9,29.96,West,271,0.0,13.0,50,0.00,,CLR,0.00,VWS V14.01,2013-01-20 02:43:00,
2013-01-19 20:44:00,50.9,32.9,29.97,West,259,4.0,14.0,50,0.00,,CLR,0.00,VWS V14.01,2013-01-20 02:44:00,
2013-01-19 20:48:00,50.9,34.9,29.97,WNW,289,6.0,14.0,54,0.00,,CLR,0.00,VWS V14.01,2013-01-20 02:48:00,
2013-01-19 20:49:00,50.7,32.8,29.97,WNW,283,6.0,14.0,50,0.00,,CLR,0.00,VWS V14.01,2013-01-20 02:49:00,
2013-01-19 20:53:00,50.7,33.2,29.97,WSW,254,1.0,14.0,51,0.00,,CLR,0.00,VWS V14.01,2013-01-20 02:53:00,
2013-01-19 20:55:00,50.7,33.2,29.97,West,261,0.0,14.0,51,0.00,,CLR,0.00,VWS V14.01,2013-01-20 02:55:00,
2013-01-19 20:59:00,50.7,33.2,29.97,WNW,289,6.0,14.0,51,0.00,,CLR,0.00,VWS V14.01,2013-01-20 02:59:00,
2013-01-19 21:00:00,50.7,33.2,29.97,WNW,296,0.0,2.0,51,0.00,,CLR,0.00,VWS V14.01,2013-01-20 03:00:00,
2013-01-19 21:04:00,50.4,33.0,29.97,WSW,252,1.0,6.0,51,0.00,,CLR,0.00,VWS V14.01,2013-01-20 03:04:00,
2013-01-19 21:05:00,50.4,33.0,29.97,WSW,255,0.0,6.0,51,0.00,,CLR,0.00,VWS V14.01,2013-01-20 03:05:00,
2013-01-19 21:09:00,50.3,33.4,29.97,WSW,256,4.0,9.0,52,0.00,,CLR,0.00,VWS V14.01,2013-01-20 03:09:00,
2013-01-19 21:10:00,50.1,33.2,29.97,West,267,3.0,9.0,52,0.00,,CLR,0.00,VWS V14.01,2013-01-20 03:10:00,
2013-01-19 21:15:00,50.0,33.1,29.98,WNW,292,0.0,9.0,52,0.00,,CLR,0.00,VWS V14.01,2013-01-20 03:15:00,
2013-01-19 21:20:00,49.7,33.3,29.98,WNW,284,4.0,9.0,53,0.00,,CLR,0.00,VWS V14.01,2013-01-20 03:20:00,
2013-01-19 21:21:00,49.7,33.3,29.98,West,269,4.0,9.0,53,0.00,,CLR,0.00,VWS V14.01,2013-01-20 03:21:00,
2013-01-19 21:25:00,49.5,33.1,29.98,West,265,5.0,12.0,53,0.00,,CLR,0.00,VWS V14.01,2013-01-20 03:25:00,
2013-01-19 21:27:00,49.4,33.0,29.98,NW,322,2.0,12.0,53,0.00,,CLR,0.00,VWS V14.01,2013-01-20 03:27:00,
2013-01-19 21:30:00,49.3,32.9,29.99,WNW,291,1.0,3.0,53,0.00,,CLR,0.00,VWS V14.01,2013-01-20 03:30:00,
2013-01-19 21:35:00,49.0,33.1,29.99,WNW,292,2.0,10.0,54,0.00,,CLR,0.00,VWS V14.01,2013-01-20 03:35:00,
2013-01-19 21:38:00,49.0,33.1,29.99,WNW,282,1.0,10.0,54,0.00,,CLR,0.00,VWS V14.01,2013-01-20 03:38:00,
2013-01-19 21:40:00,48.8,32.9,29.99,West,281,3.0,10.0,54,0.00,,CLR,0.00,VWS V14.01,2013-01-20 03:40:00,
2013-01-19 21:43:00,48.7,32.8,29.99,WNW,284,3.0,10.0,54,0.00,,CLR,0.00,VWS V14.01,2013-01-20 03:43:00,
2013-01-19 21:45:00,48.5,32.6,29.99,West,277,7.0,10.0,54,0.00,,CLR,0.00,VWS V14.01,2013-01-20 03:45:00,
2013-01-19 21:48:00,48.5,32.6,29.99,WNW,294,0.0,10.0,54,0.00,,CLR,0.00,VWS V14.01,2013-01-20 03:48:00,
2013-01-19 21:50:00,48.5,32.6,29.99,WNW,296,2.0,10.0,54,0.00,,CLR,0.00,VWS V14.01,2013-01-20 03:50:00,
2013-01-19 21:53:00,48.4,32.5,29.99,West,271,3.0,10.0,54,0.00,,CLR,0.00,VWS V14.01,2013-01-20 03:53:00,
2013-01-19 21:56:00,48.2,32.3,29.99,WNW,294,2.0,10.0,54,0.00,,CLR,0.00,VWS V14.01,2013-01-20 03:56:00,
2013-01-19 21:58:00,48.2,32.3,29.99,WNW,288,1.0,10.0,54,0.00,,CLR,0.00,VWS V14.01,2013-01-20 03:58:00,
2013-01-19 22:00:00,48.1,32.3,30.00,WNW,302,3.0,13.0,54,0.00,,,0.00,VWS V14.01,2013-01-20 04:00:00,
2013-01-19 22:01:00,48.1,32.3,30.00,NW,306,1.0,4.0,54,0.00,,CLR,0.00,VWS V14.01,2013-01-20 04:01:00,
2013-01-19 22:03:00,47.8,32.4,30.00,WNW,296,5.0,6.0,55,0.00,,CLR,0.00,VWS V14.01,2013-01-20 04:03:00,
2013-01-19 22:06:00,47.6,32.2,30.00,WNW,282,0.0,7.0,55,0.00,,CLR,0.00,VWS V14.01,2013-01-20 04:06:00,
2013-01-19 22:08:00,47.5,32.2,30.00,NW,310,0.0,10.0,55,0.00,,CLR,0.00,VWS V14.01,2013-01-20 04:08:00,
2013-01-19 22:12:00,47.3,32.0,30.00,WNW,288,5.0,12.0,55,0.00,,CLR,0.00,VWS V14.01,2013-01-20 04:12:00,
2013-01-19 22:13:00,47.3,32.0,30.00,WNW,299,0.0,12.0,55,0.00,,CLR,0.00,VWS V14.01,2013-01-20 04:13:00,
2013-01-19 22:17:00,47.0,32.1,30.00,NW,311,0.0,12.0,56,0.00,,CLR,0.00,VWS V14.01,2013-01-20 04:17:00,
2013-01-19 22:18:00,47.0,32.1,30.00,WNW,300,0.0,12.0,56,0.00,,CLR,0.00,VWS V14.01,2013-01-20 04:18:00,
2013-01-19 22:23:00,46.6,32.2,30.00,West,266,0.0,12.0,57,0.00,,CLR,0.00,VWS V14.01,2013-01-20 04:23:00,
2013-01-19 22:24:00,46.6,32.2,30.00,West,267,0.0,12.0,57,0.00,,CLR,0.00,VWS V14.01,2013-01-20 04:24:00,
2013-01-19 22:28:00,46.3,32.3,30.00,West,274,5.0,12.0,58,0.00,,CLR,0.00,VWS V14.01,2013-01-20 04:28:00,
2013-01-19 22:29:00,46.1,32.2,30.00,West,279,0.0,12.0,58,0.00,,CLR,0.00,VWS V14.01,2013-01-20 04:29:00,
2013-01-19 22:30:00,46.1,32.2,30.01,WNW,300,4.0,12.0,58,0.00,,,0.00,VWS V14.01,2013-01-20 04:30:00,
2013-01-19 22:33:00,45.9,32.0,30.01,WNW,283,0.0,6.0,58,0.00,,CLR,0.00,VWS V14.01,2013-01-20 04:33:00,
2013-01-19 22:34:00,45.9,32.0,30.01,WNW,296,0.0,6.0,58,0.00,,CLR,0.00,VWS V14.01,2013-01-20 04:34:00,
2013-01-19 22:38:00,45.6,32.1,30.01,WNW,298,0.0,6.0,59,0.00,,CLR,0.00,VWS V14.01,2013-01-20 04:38:00,
2013-01-19 22:39:00,45.4,31.9,30.01,WNW,292,2.0,7.0,59,0.00,,CLR,0.00,VWS V14.01,2013-01-20 04:39:00,
2013-01-19 22:43:00,45.3,31.8,30.01,NW,320,0.0,7.0,59,0.00,,CLR,0.00,VWS V14.01,2013-01-20 04:43:00,
2013-01-19 22:44:00,45.1,31.6,30.02,West,271,0.0,7.0,59,0.00,,CLR,0.00,VWS V14.01,2013-01-20 04:44:00,
2013-01-19 22:48:00,44.8,31.8,30.02,West,279,5.0,7.0,60,0.00,,CLR,0.00,VWS V14.01,2013-01-20 04:48:00,
2013-01-19 22:49:00,44.8,31.8,30.02,WNW,290,0.0,7.0,60,0.00,,CLR,0.00,VWS V14.01,2013-01-20 04:49:00,
2013-01-19 22:54:00,44.8,32.2,30.02,WNW,286,0.0,7.0,61,0.00,,CLR,0.00,VWS V14.01,2013-01-20 04:54:00,
2013-01-19 22:55:00,44.8,32.2,30.02,NW,316,0.0,7.0,61,0.00,,CLR,0.00,VWS V14.01,2013-01-20 04:55:00,
2013-01-19 22:59:00,44.5,31.9,30.02,WNW,299,0.0,7.0,61,0.00,,CLR,0.00,VWS V14.01,2013-01-20 04:59:00,
2013-01-19 23:00:00,44.5,31.9,30.02,WNW,289,2.0,2.0,61,0.00,,CLR,0.00,VWS V14.01,2013-01-20 05:00:00,
2013-01-19 23:01:00,44.5,31.9,30.02,NW,317,0.0,4.0,61,0.00,,CLR,0.00,VWS V14.01,2013-01-20 05:01:00,
2013-01-19 23:02:00,44.5,31.9,30.02,WNW,292,1.0,5.0,61,0.00,,CLR,0.00,VWS V14.01,2013-01-20 05:02:00,
2013-01-19 23:03:00,44.5,31.5,30.02,WNW,289,0.0,5.0,60,0.00,,CLR,0.00,VWS V14.01,2013-01-20 05:03:00,
2013-01-19 23:05:00,44.4,31.4,30.02,NW,317,4.0,9.0,60,0.00,,CLR,0.00,VWS V14.01,2013-01-20 05:05:00,
2013-01-19 23:06:00,44.4,31.4,30.02,West,279,4.0,9.0,60,0.00,,CLR,0.00,VWS V14.01,2013-01-20 05:06:00,
2013-01-19 23:07:00,44.4,31.4,30.02,West,274,4.0,9.0,60,0.00,,CLR,0.00,VWS V14.01,2013-01-20 05:07:00,
2013-01-19 23:08:00,44.4,31.4,30.02,WNW,290,0.0,9.0,60,0.00,,CLR,0.00,VWS V14.01,2013-01-20 05:08:00,
2013-01-19 23:10:00,44.2,31.6,30.02,NW,304,1.0,9.0,61,0.00,,CLR,0.00,VWS V14.01,2013-01-20 05:10:00,
2013-01-19 23:12:00,44.1,31.5,30.02,NW,317,2.0,9.0,61,0.00,,CLR,0.00,VWS V14.01,2013-01-20 05:12:00,
2013-01-19 23:13:00,44.0,31.4,30.02,WNW,298,1.0,9.0,61,0.00,,CLR,0.00,VWS V14.01,2013-01-20 05:13:00,
2013-01-19 23:15:00,44.0,31.4,30.03,WNW,288,3.0,9.0,61,0.00,,CLR,0.00,VWS V14.01,2013-01-20 05:15:00,
2013-01-19 23:16:00,44.0,31.4,30.03,West,276,2.0,9.0,61,0.00,,CLR,0.00,VWS V14.01,2013-01-20 05:16:00,
2013-01-19 23:17:00,44.0,31.4,30.03,NW,309,11.0,11.0,61,0.00,,CLR,0.00,VWS V14.01,2013-01-20 05:17:00,
2013-01-19 23:18:00,44.0,31.4,30.03,WNW,302,1.0,11.0,61,0.00,,CLR,0.00,VWS V14.01,2013-01-20 05:18:00,
2013-01-19 23:20:00,44.1,31.1,30.03,WNW,288,0.0,11.0,60,0.00,,CLR,0.00,VWS V14.01,2013-01-20 05:20:00,
2013-01-19 23:21:00,44.1,31.1,30.03,NW,304,4.0,12.0,60,0.00,,CLR,0.00,VWS V14.01,2013-01-20 05:21:00,
2013-01-19 23:22:00,44.1,31.1,30.03,WNW,298,5.0,12.0,60,0.00,,CLR,0.00,VWS V14.01,2013-01-20 05:22:00,
2013-01-19 23:24:00,44.2,31.2,30.03,West,275,1.0,12.0,60,0.00,,CLR,0.00,VWS V14.01,2013-01-20 05:24:00,
2013-01-19 23:25:00,44.4,31.0,30.03,WNW,291,2.0,12.0,59,0.00,,CLR,0.00,VWS V14.01,2013-01-20 05:25:00,
2013-01-19 23:26:00,44.4,31.0,30.03,WNW,283,0.0,12.0,59,0.00,,CLR,0.00,VWS V14.01,2013-01-20 05:26:00,
2013-01-19 23:28:00,44.4,31.0,30.03,WNW,292,0.0,12.0,59,0.00,,CLR,0.00,VWS V14.01,2013-01-20 05:28:00,
2013-01-19 23:29:00,44.4,31.0,30.03,WNW,295,0.0,12.0,59,0.00,,CLR,0.00,VWS V14.01,2013-01-20 05:29:00,
2013-01-19 23:30:00,44.2,30.8,30.03,WNW,301,1.0,1.0,59,0.00,,CLR,0.00,VWS V14.01,2013-01-20 05:30:00,
2013-01-19 23:32:00,44.2,30.8,30.03,WNW,303,0.0,4.0,59,0.00,,CLR,0.00,VWS V14.01,2013-01-20 05:32:00,
2013-01-19 23:33:00,44.2,30.8,30.03,WNW,290,0.0,4.0,59,0.00,,CLR,0.00,VWS V14.01,2013-01-20 05:33:00,
2013-01-19 23:34:00,44.2,30.8,30.03,WNW,302,0.0,5.0,59,0.00,,CLR,0.00,VWS V14.01,2013-01-20 05:34:00,
2013-01-19 23:35:00,44.2,30.8,30.03,WNW,294,2.0,5.0,59,0.00,,CLR,0.00,VWS V14.01,2013-01-20 05:35:00,
2013-01-19 23:37:00,44.2,30.8,30.03,WNW,282,3.0,7.0,59,0.00,,CLR,0.00,VWS V14.01,2013-01-20 05:37:00,
2013-01-19 23:38:00,44.4,31.0,30.03,NNW,338,7.0,11.0,59,0.00,,CLR,0.00,VWS V14.01,2013-01-20 05:38:00,
2013-01-19 23:40:00,44.5,30.7,30.03,West,273,4.0,11.0,58,0.00,,CLR,0.00,VWS V14.01,2013-01-20 05:40:00,
2013-01-19 23:42:00,44.5,30.7,30.03,WNW,288,0.0,11.0,58,0.00,,CLR,0.00,VWS V14.01,2013-01-20 05:42:00,
2013-01-19 23:43:00,44.5,30.7,30.03,West,279,2.0,11.0,58,0.00,,CLR,0.00,VWS V14.01,2013-01-20 05:43:00,
2013-01-19 23:45:00,44.5,30.7,30.03,West,273,0.0,11.0,58,0.00,,CLR,0.00,VWS V14.01,2013-01-20 05:45:00,
2013-01-19 23:46:00,44.5,30.7,30.03,West,279,6.0,11.0,58,0.00,,CLR,0.00,VWS V14.01,2013-01-20 05:46:00,
2013-01-19 23:47:00,44.5,30.7,30.03,West,263,4.0,11.0,58,0.00,,CLR,0.00,VWS V14.01,2013-01-20 05:47:00,
2013-01-19 23:48:00,44.5,30.2,30.03,West,260,1.0,11.0,57,0.00,,CLR,0.00,VWS V14.01,2013-01-20 05:48:00,
2013-01-19 23:50:00,44.5,30.2,30.03,WNW,300,3.0,11.0,57,0.00,,CLR,0.00,VWS V14.01,2013-01-20 05:50:00,
2013-01-19 23:51:00,44.5,30.2,30.03,WNW,294,0.0,11.0,57,0.00,,CLR,0.00,VWS V14.01,2013-01-20 05:51:00,
2013-01-19 23:52:00,44.4,30.6,30.03,West,277,0.0,11.0,58,0.00,,CLR,0.00,VWS V14.01,2013-01-20 05:52:00,
2013-01-19 23:53:00,44.4,30.6,30.03,WNW,291,0.0,11.0,58,0.00,,CLR,0.00,VWS V14.01,2013-01-20 05:53:00,
2013-01-19 23:55:00,44.2,30.4,30.03,NW,310,3.0,11.0,58,0.00,,CLR,0.00,VWS V14.01,2013-01-20 05:55:00,
2013-01-19 23:56:00,44.1,30.3,30.03,WNW,292,0.0,11.0,58,0.00,,CLR,0.00,VWS V14.01,2013-01-20 05:56:00,
2013-01-19 23:57:00,44.1,30.3,30.03,NW,320,0.0,11.0,58,0.00,,CLR,0.00,VWS V14.01,2013-01-20 05:57:00,
2013-01-19 23:59:00,44.0,30.2,30.04,NW,317,0.0,11.0,58,0.00,,CLR,0.00,VWS V14.01,2013-01-20 05:59:00,